Time,TemperatureF,DewpointF,PressureIn,WindDirection,WindDirectionDegrees,WindSpeedMPH,WindSpeedGustMPH,Humidity,HourlyPrecipIn,Conditions,Clouds,dailyrainin,SolarRadiationWatts/m^2,SoftwareType,DateUTC
2013-08-17 00:00:00,68.4,66.9,30.11,ENE,71,4.6,4.6,95,0.00,RA,,0.00,0.0,WeatherDisplay:10.37,2013-08-17 04:00:00,
2013-08-17 00:01:00,68.4,66.9,30.11,NE,55,5.8,5.8,95,0.00,RA,,0.00,0.0,WeatherDisplay:10.37,2013-08-17 04:01:00,
2013-08-17 00:06:00,68.4,66.9,30.11,ENE,57,3.5,3.5,95,0.00,RA,,0.00,0.0,WeatherDisplay:10.37,2013-08-17 04:06:00,
2013-08-17 00:11:00,68.4,66.9,30.10,NNE,30,5.8,5.8,95,0.00,OVC,,0.00,0.0,WeatherDisplay:10.37,2013-08-17 04:11:00,
2013-08-17 00:16:00,68.4,66.9,30.11,NNE,12,4.6,4.6,95,0.00,OVC,,0.00,0.0,WeatherDisplay:10.37,2013-08-17 04:16:00,
2013-08-17 00:17:00,68.3,66.8,30.11,NNE,13,3.5,3.5,95,0.00,OVC,,0.00,0.0,WeatherDisplay:10.37,2013-08-17 04:17:00,
2013-08-17 00:21:00,68.3,66.8,30.11,NNE,13,5.8,5.8,95,0.00,OVC,,0.00,0.0,WeatherDisplay:10.37,2013-08-17 04:21:00,
2013-08-17 00:22:00,68.3,66.8,30.11,ENE,64,3.5,3.5,95,0.00,OVC,,0.00,0.0,WeatherDisplay:10.37,2013-08-17 04:22:00,
2013-08-17 00:26:00,68.3,66.8,30.11,NNE,14,6.9,6.9,95,0.00,OVC,,0.00,0.0,WeatherDisplay:10.37,2013-08-17 04:26:00,
2013-08-17 00:27:00,68.3,66.8,30.10,NNE,24,5.8,5.8,95,0.00,OVC,,0.00,0.0,WeatherDisplay:10.37,2013-08-17 04:27:00,
2013-08-17 00:31:00,68.2,66.7,30.10,NNE,24,8.1,8.1,95,0.00,OVC,,0.00,0.0,WeatherDisplay:10.37,2013-08-17 04:31:00,
2013-08-17 00:32:00,68.2,66.7,30.10,East,89,8.1,8.1,95,0.00,OVC,,0.00,0.0,WeatherDisplay:10.37,2013-08-17 04:32:00,
2013-08-17 00:33:00,68.2,66.7,30.10,NE,44,7.0,7.0,95,0.00,OVC,,0.00,0.0,WeatherDisplay:10.37,2013-08-17 04:33:00,
2013-08-17 00:37:00,68.1,66.6,30.10,NE,46,8.1,8.1,95,0.00,OVC,,0.00,0.0,WeatherDisplay:10.37,2013-08-17 04:37:00,
2013-08-17 00:38:00,68.2,66.7,30.10,ENE,58,7.0,7.0,95,0.00,OVC,,0.00,0.0,WeatherDisplay:10.37,2013-08-17 04:38:00,
2013-08-17 00:42:00,68.1,66.6,30.10,NNE,28,9.2,9.2,95,0.00,OVC,,0.00,0.0,WeatherDisplay:10.37,2013-08-17 04:42:00,
2013-08-17 00:43:00,68.1,66.6,30.10,ENE,59,11.5,11.5,95,0.00,OVC,,0.00,0.0,WeatherDisplay:10.37,2013-08-17 04:43:00,
2013-08-17 00:44:00,68.1,66.6,30.10,NE,47,4.6,4.6,95,0.00,OVC,,0.00,0.0,WeatherDisplay:10.37,2013-08-17 04:44:00,
2013-08-17 00:47:00,68.1,66.6,30.10,East,88,5.8,5.8,95,0.00,OVC,,0.00,0.0,WeatherDisplay:10.37,2013-08-17 04:47:00,
2013-08-17 00:48:00,68.1,66.6,30.10,ENE,58,6.9,6.9,95,0.00,OVC,,0.00,0.0,WeatherDisplay:10.37,2013-08-17 04:48:00,
2013-08-17 00:49:00,68.1,66.6,30.10,NE,52,8.1,8.1,95,0.00,OVC,,0.00,0.0,WeatherDisplay:10.37,2013-08-17 04:49:00,
2013-08-17 00:52:00,68.1,66.6,30.11,NE,53,5.0,5.0,95,0.00,OVC,,0.00,0.0,WeatherDisplay:10.37,2013-08-17 04:52:00,
2013-08-17 00:53:00,68.1,66.6,30.11,ENE,76,4.6,4.6,95,0.00,OVC,,0.00,0.0,WeatherDisplay:10.37,2013-08-17 04:53:00,
2013-08-17 00:55:00,68.1,66.6,30.11,NE,40,4.6,4.6,95,0.00,OVC,,0.00,0.0,WeatherDisplay:10.37,2013-08-17 04:55:00,
2013-08-17 00:57:00,68.1,66.6,30.11,East,86,3.5,3.5,95,0.00,OVC,,0.00,0.0,WeatherDisplay:10.37,2013-08-17 04:57:00,
2013-08-17 00:58:00,68.1,66.6,30.11,North,5,4.6,4.6,95,0.00,OVC,,0.00,0.0,WeatherDisplay:10.37,2013-08-17 04:58:00,
2013-08-17 00:59:00,68.1,66.6,30.11,NE,51,4.6,4.6,95,0.00,OVC,,0.00,0.0,WeatherDisplay:10.37,2013-08-17 04:59:00,
2013-08-17 01:00:00,68.1,66.6,30.11,NNE,29,8.1,8.1,95,0.00,OVC,,0.00,0.0,WeatherDisplay:10.37,2013-08-17 05:00:00,
2013-08-17 01:02:00,68.1,66.6,30.10,NNE,32,8.1,8.1,95,0.00,OVC,,0.00,0.0,WeatherDisplay:10.37,2013-08-17 05:02:00,
2013-08-17 01:03:00,68.1,66.6,30.11,NE,52,8.1,8.1,95,0.00,OVC,,0.00,0.0,WeatherDisplay:10.37,2013-08-17 05:03:00,
2013-08-17 01:04:00,68.1,66.6,30.11,ENE,65,7.0,7.0,95,0.00,OVC,,0.00,0.0,WeatherDisplay:10.37,2013-08-17 05:04:00,
2013-08-17 01:05:00,68.1,66.6,30.11,NE,42,8.1,8.1,95,0.00,OVC,,0.00,0.0,WeatherDisplay:10.37,2013-08-17 05:05:00,
2013-08-17 01:07:00,68.1,66.6,30.10,ENE,75,6.0,6.0,95,0.00,OVC,,0.00,0.0,WeatherDisplay:10.37,2013-08-17 05:07:00,
2013-08-17 01:08:00,68.1,66.6,30.10,ENE,74,5.8,5.8,95,0.00,OVC,,0.00,0.0,WeatherDisplay:10.37,2013-08-17 05:08:00,
2013-08-17 01:09:00,68.1,66.6,30.10,NE,42,6.9,6.9,95,0.00,OVC,,0.00,0.0,WeatherDisplay:10.37,2013-08-17 05:09:00,
2013-08-17 01:10:00,68.1,66.6,30.10,East,91,5.8,5.8,95,0.00,OVC,,0.00,0.0,WeatherDisplay:10.37,2013-08-17 05:10:00,
2013-08-17 01:12:00,68.1,66.6,30.10,NE,36,6.9,6.9,95,0.00,OVC,,0.00,0.0,WeatherDisplay:10.37,2013-08-17 05:12:00,
2013-08-17 01:13:00,68.1,66.6,30.10,ENE,63,9.0,9.0,95,0.00,OVC,,0.00,0.0,WeatherDisplay:10.37,2013-08-17 05:13:00,
2013-08-17 01:14:00,68.1,66.6,30.10,ENE,73,10.4,10.4,95,0.00,OVC,,0.00,0.0,WeatherDisplay:10.37,2013-08-17 05:14:00,
2013-08-17 01:15:00,68.1,66.6,30.10,ENE,63,4.6,4.6,95,0.00,OVC,,0.00,0.0,WeatherDisplay:10.37,2013-08-17 05:15:00,
2013-08-17 01:18:00,68.1,66.6,30.10,ENE,68,3.5,3.5,95,0.00,OVC,,0.00,0.0,WeatherDisplay:10.37,2013-08-17 05:18:00,
2013-08-17 01:19:00,68.1,66.6,30.10,East,81,8.0,8.0,95,0.00,OVC,,0.00,0.0,WeatherDisplay:10.37,2013-08-17 05:19:00,
2013-08-17 01:20:00,68.1,66.6,30.10,East,80,6.9,6.9,95,0.00,OVC,,0.00,0.0,WeatherDisplay:10.37,2013-08-17 05:20:00,
2013-08-17 01:23:00,68.1,66.6,30.10,ENE,65,11.5,11.5,95,0.00,OVC,,0.00,0.0,WeatherDisplay:10.37,2013-08-17 05:23:00,
2013-08-17 01:24:00,68.1,66.6,30.10,East,92,10.4,10.4,95,0.00,OVC,,0.00,0.0,WeatherDisplay:10.37,2013-08-17 05:24:00,
2013-08-17 01:25:00,68.1,66.6,30.10,East,101,8.1,8.1,95,0.00,OVC,,0.00,0.0,WeatherDisplay:10.37,2013-08-17 05:25:00,
2013-08-17 01:28:00,68.1,66.6,30.10,ENE,64,7.0,7.0,95,0.00,OVC,,0.00,0.0,WeatherDisplay:10.37,2013-08-17 05:28:00,
2013-08-17 01:29:00,68.1,66.6,30.10,ENE,75,6.9,6.9,95,0.00,OVC,,0.00,0.0,WeatherDisplay:10.37,2013-08-17 05:29:00,
2013-08-17 01:30:00,68.1,66.6,30.10,East,89,6.9,6.9,95,0.00,OVC,,0.00,0.0,WeatherDisplay:10.37,2013-08-17 05:30:00,
2013-08-17 01:32:00,68.1,66.6,30.10,NE,38,6.9,6.9,95,0.00,OVC,,0.00,0.0,WeatherDisplay:10.37,2013-08-17 05:32:00,
2013-08-17 01:33:00,68.1,66.6,30.10,NE,45,6.9,6.9,95,0.00,OVC,,0.00,0.0,WeatherDisplay:10.37,2013-08-17 05:33:00,
2013-08-17 01:34:00,68.1,66.6,30.10,ENE,63,8.0,8.0,95,0.00,OVC,,0.00,0.0,WeatherDisplay:10.37,2013-08-17 05:34:00,
2013-08-17 01:35:00,68.1,66.6,30.10,NE,45,8.1,8.1,95,0.00,OVC,,0.00,0.0,WeatherDisplay:10.37,2013-08-17 05:35:00,
2013-08-17 01:37:00,68.1,66.6,30.10,ENE,72,5.8,5.8,95,0.00,OVC,,0.00,0.0,WeatherDisplay:10.37,2013-08-17 05:37:00,
2013-08-17 01:38:00,68.1,66.6,30.10,NNE,24,6.9,6.9,95,0.00,OVC,,0.00,0.0,WeatherDisplay:10.37,2013-08-17 05:38:00,
2013-08-17 01:40:00,68.1,66.6,30.10,ENE,71,9.2,9.2,95,0.00,OVC,,0.00,0.0,WeatherDisplay:10.37,2013-08-17 05:40:00,
2013-08-17 01:42:00,68.1,66.6,30.10,NE,53,8.1,8.1,95,0.00,OVC,,0.00,0.0,WeatherDisplay:10.37,2013-08-17 05:42:00,
2013-08-17 01:44:00,68.1,66.6,30.10,East,79,8.1,8.1,95,0.00,OVC,,0.00,0.0,WeatherDisplay:10.37,2013-08-17 05:44:00,
2013-08-17 01:45:00,68.1,66.6,30.10,NE,56,5.8,5.8,95,0.00,OVC,,0.00,0.0,WeatherDisplay:10.37,2013-08-17 05:45:00,
2013-08-17 01:47:00,68.1,66.6,30.10,NNE,32,6.9,6.9,95,0.00,OVC,,0.00,0.0,WeatherDisplay:10.37,2013-08-17 05:47:00,
2013-08-17 01:49:00,68.1,66.6,30.09,NNE,17,5.8,5.8,95,0.00,OVC,,0.00,0.0,WeatherDisplay:10.37,2013-08-17 05:49:00,
2013-08-17 01:50:00,68.1,66.6,30.09,ENE,65,8.1,8.1,95,0.00,OVC,,0.00,0.0,WeatherDisplay:10.37,2013-08-17 05:50:00,
2013-08-17 01:52:00,68.1,66.6,30.09,East,80,8.1,8.1,95,0.00,OVC,,0.00,0.0,WeatherDisplay:10.37,2013-08-17 05:52:00,
2013-08-17 01:53:00,68.1,66.6,30.09,ENE,57,8.1,8.1,95,0.00,OVC,,0.00,0.0,WeatherDisplay:10.37,2013-08-17 05:53:00,
2013-08-17 01:55:00,68.1,66.6,30.09,NNE,17,7.0,7.0,95,0.00,OVC,,0.00,0.0,WeatherDisplay:10.37,2013-08-17 05:55:00,
2013-08-17 01:56:00,68.1,66.6,30.09,ENE,58,6.9,6.9,95,0.00,OVC,,0.00,0.0,WeatherDisplay:10.37,2013-08-17 05:56:00,
2013-08-17 01:57:00,68.1,66.6,30.09,NE,48,9.2,9.2,95,0.00,OVC,,0.00,0.0,WeatherDisplay:10.37,2013-08-17 05:57:00,
2013-08-17 01:58:00,68.1,66.6,30.09,ENE,69,9.2,9.2,95,0.00,OVC,,0.00,0.0,WeatherDisplay:10.37,2013-08-17 05:58:00,
2013-08-17 02:00:00,68.1,66.6,30.09,ENE,69,4.6,4.6,95,0.00,OVC,,0.00,0.0,WeatherDisplay:10.37,2013-08-17 06:00:00,
2013-08-17 02:01:00,68.1,66.6,30.09,NNE,25,5.8,5.8,95,0.00,OVC,,0.00,0.0,WeatherDisplay:10.37,2013-08-17 06:01:00,
2013-08-17 02:02:00,68.1,66.6,30.09,NNE,32,9.2,9.2,95,0.00,OVC,,0.00,0.0,WeatherDisplay:10.37,2013-08-17 06:02:00,
2013-08-17 02:03:00,68.1,66.6,30.09,East,79,8.1,8.1,95,0.00,OVC,,0.00,0.0,WeatherDisplay:10.37,2013-08-17 06:03:00,
2013-08-17 02:06:00,68.0,66.5,30.09,ENE,63,8.1,8.1,95,0.00,OVC,,0.00,0.0,WeatherDisplay:10.37,2013-08-17 06:06:00,
2013-08-17 02:07:00,68.1,66.6,30.09,NE,46,8.1,8.1,95,0.00,OVC,,0.00,0.0,WeatherDisplay:10.37,2013-08-17 06:07:00,
2013-08-17 02:08:00,68.1,66.6,30.09,NE,54,6.9,6.9,95,0.00,OVC,,0.00,0.0,WeatherDisplay:10.37,2013-08-17 06:08:00,
2013-08-17 02:11:00,68.1,66.6,30.09,ENE,65,6.9,6.9,95,0.00,OVC,,0.00,0.0,WeatherDisplay:10.37,2013-08-17 06:11:00,
2013-08-17 02:12:00,68.1,66.6,30.09,North,360,5.8,5.8,95,0.00,OVC,,0.00,0.0,WeatherDisplay:10.37,2013-08-17 06:12:00,
2013-08-17 02:13:00,68.1,66.6,30.09,East,86,5.8,5.8,95,0.00,OVC,,0.00,0.0,WeatherDisplay:10.37,2013-08-17 06:13:00,
2013-08-17 02:16:00,68.1,66.6,30.09,ENE,69,4.0,4.0,95,0.00,OVC,,0.00,0.0,WeatherDisplay:10.37,2013-08-17 06:16:00,
2013-08-17 02:17:00,68.1,66.6,30.09,ENE,62,4.0,4.0,95,0.00,OVC,,0.00,0.0,WeatherDisplay:10.37,2013-08-17 06:17:00,
2013-08-17 02:18:00,68.1,66.6,30.09,East,88,4.6,4.6,95,0.00,OVC,,0.00,0.0,WeatherDisplay:10.37,2013-08-17 06:18:00,
2013-08-17 02:21:00,68.1,66.6,30.09,ENE,70,3.5,3.5,95,0.00,OVC,,0.00,0.0,WeatherDisplay:10.37,2013-08-17 06:21:00,
2013-08-17 02:22:00,68.1,66.6,30.09,ENE,70,3.5,3.5,95,0.00,OVC,,0.00,0.0,WeatherDisplay:10.37,2013-08-17 06:22:00,
2013-08-17 02:24:00,68.1,66.6,30.09,NE,54,6.9,6.9,95,0.00,OVC,,0.00,0.0,WeatherDisplay:10.37,2013-08-17 06:24:00,
2013-08-17 02:27:00,68.1,66.6,30.09,NE,38,4.6,4.6,95,0.00,OVC,,0.00,0.0,WeatherDisplay:10.37,2013-08-17 06:27:00,
2013-08-17 02:28:00,68.1,66.6,30.09,ENE,67,8.1,8.1,95,0.00,OVC,,0.00,0.0,WeatherDisplay:10.37,2013-08-17 06:28:00,
2013-08-17 02:29:00,68.1,66.6,30.09,East,79,4.6,4.6,95,0.00,OVC,,0.00,0.0,WeatherDisplay:10.37,2013-08-17 06:29:00,
2013-08-17 02:32:00,68.1,66.6,30.09,ENE,74,6.9,6.9,95,0.00,OVC,,0.00,0.0,WeatherDisplay:10.37,2013-08-17 06:32:00,
2013-08-17 02:33:00,68.1,66.6,30.08,NE,42,8.1,8.1,95,0.00,OVC,,0.00,0.0,WeatherDisplay:10.37,2013-08-17 06:33:00,
2013-08-17 02:35:00,68.1,66.6,30.08,NE,42,5.8,5.8,95,0.00,OVC,,0.00,0.0,WeatherDisplay:10.37,2013-08-17 06:35:00,
2013-08-17 02:37:00,68.1,66.6,30.08,NE,41,4.6,4.6,95,0.00,OVC,,0.00,0.0,WeatherDisplay:10.37,2013-08-17 06:37:00,
2013-08-17 02:38:00,68.1,66.3,30.08,ENE,57,5.8,5.8,94,0.00,OVC,,0.00,0.0,WeatherDisplay:10.37,2013-08-17 06:38:00,
2013-08-17 02:40:00,68.1,66.6,30.08,NE,43,4.6,4.6,95,0.00,OVC,,0.00,0.0,WeatherDisplay:10.37,2013-08-17 06:40:00,
2013-08-17 02:42:00,68.1,66.6,30.08,ENE,61,8.1,8.1,95,0.00,OVC,,0.00,0.0,WeatherDisplay:10.37,2013-08-17 06:42:00,
2013-08-17 02:43:00,68.1,66.6,30.08,East,80,8.1,8.1,95,0.00,OVC,,0.00,0.0,WeatherDisplay:10.37,2013-08-17 06:43:00,
2013-08-17 02:45:00,68.1,66.6,30.08,NE,42,3.5,3.5,95,0.00,OVC,,0.00,0.0,WeatherDisplay:10.37,2013-08-17 06:45:00,
2013-08-17 02:47:00,68.2,66.7,30.08,ENE,61,4.0,4.0,95,0.00,OVC,,0.00,0.0,WeatherDisplay:10.37,2013-08-17 06:47:00,
2013-08-17 02:48:00,68.2,66.7,30.08,ENE,75,7.0,7.0,95,0.00,OVC,,0.00,0.0,WeatherDisplay:10.37,2013-08-17 06:48:00,
2013-08-17 02:51:00,68.2,66.7,30.08,ENE,67,6.9,6.9,95,0.00,OVC,,0.00,0.0,WeatherDisplay:10.37,2013-08-17 06:51:00,
2013-08-17 02:53:00,68.1,66.6,30.08,NE,51,4.6,4.6,95,0.00,OVC,,0.00,0.0,WeatherDisplay:10.37,2013-08-17 06:53:00,
2013-08-17 02:56:00,68.2,66.7,30.08,ENE,59,8.0,8.0,95,0.00,OVC,,0.00,0.0,WeatherDisplay:10.37,2013-08-17 06:56:00,
2013-08-17 02:58:00,68.2,66.7,30.08,ENE,71,6.9,6.9,95,0.00,OVC,,0.00,0.0,WeatherDisplay:10.37,2013-08-17 06:58:00,
2013-08-17 03:01:00,68.1,66.6,30.07,ENE,60,5.8,5.8,95,0.00,OVC,,0.00,0.0,WeatherDisplay:10.37,2013-08-17 07:01:00,
2013-08-17 03:03:00,68.1,66.6,30.07,ENE,59,6.9,6.9,95,0.00,OVC,,0.00,0.0,WeatherDisplay:10.37,2013-08-17 07:03:00,
2013-08-17 03:04:00,68.1,66.6,30.07,ENE,68,8.1,8.1,95,0.00,OVC,,0.00,0.0,WeatherDisplay:10.37,2013-08-17 07:04:00,
2013-08-17 03:07:00,68.1,66.6,30.07,ENE,59,5.8,5.8,95,0.00,OVC,,0.00,0.0,WeatherDisplay:10.37,2013-08-17 07:07:00,
2013-08-17 03:08:00,68.2,66.7,30.07,ENE,77,5.8,5.8,95,0.00,OVC,,0.00,0.0,WeatherDisplay:10.37,2013-08-17 07:08:00,
2013-08-17 03:09:00,68.2,66.7,30.07,ENE,77,4.6,4.6,95,0.00,OVC,,0.00,0.0,WeatherDisplay:10.37,2013-08-17 07:09:00,
2013-08-17 03:10:00,68.2,66.7,30.07,NE,36,5.0,5.0,95,0.00,OVC,,0.00,0.0,WeatherDisplay:10.37,2013-08-17 07:10:00,
2013-08-17 03:12:00,68.1,66.6,30.07,ENE,60,3.5,3.5,95,0.00,OVC,,0.00,0.0,WeatherDisplay:10.37,2013-08-17 07:12:00,
2013-08-17 03:14:00,68.1,66.6,30.07,ENE,74,4.0,4.0,95,0.00,OVC,,0.00,0.0,WeatherDisplay:10.37,2013-08-17 07:14:00,
2013-08-17 03:15:00,68.1,66.6,30.07,NE,49,4.0,4.0,95,0.00,OVC,,0.00,0.0,WeatherDisplay:10.37,2013-08-17 07:15:00,
2013-08-17 03:17:00,68.1,66.6,30.07,NNE,27,6.9,6.9,95,0.00,OVC,,0.00,0.0,WeatherDisplay:10.37,2013-08-17 07:17:00,
2013-08-17 03:19:00,68.1,66.6,30.07,NE,51,3.5,3.5,95,0.00,OVC,,0.00,0.0,WeatherDisplay:10.37,2013-08-17 07:19:00,
2013-08-17 03:20:00,68.1,66.6,30.07,NE,50,4.6,4.6,95,0.00,OVC,,0.00,0.0,WeatherDisplay:10.37,2013-08-17 07:20:00,
2013-08-17 03:22:00,68.1,66.6,30.07,NNE,23,5.0,5.0,95,0.00,OVC,,0.00,0.0,WeatherDisplay:10.37,2013-08-17 07:22:00,
2013-08-17 03:24:00,68.1,66.6,30.08,NNE,20,6.9,6.9,95,0.00,OVC,,0.00,0.0,WeatherDisplay:10.37,2013-08-17 07:24:00,
2013-08-17 03:25:00,68.1,66.6,30.08,NE,48,6.9,6.9,95,0.00,OVC,,0.00,0.0,WeatherDisplay:10.37,2013-08-17 07:25:00,
2013-08-17 03:26:00,68.1,66.6,30.07,NNE,26,5.8,5.8,95,0.00,OVC,,0.00,0.0,WeatherDisplay:10.37,2013-08-17 07:26:00,
2013-08-17 03:27:00,68.1,66.6,30.07,NNE,16,4.6,4.6,95,0.00,OVC,,0.00,0.0,WeatherDisplay:10.37,2013-08-17 07:27:00,
2013-08-17 03:29:00,68.1,66.6,30.07,NNW,328,4.6,4.6,95,0.00,OVC,,0.00,0.0,WeatherDisplay:10.37,2013-08-17 07:29:00,
2013-08-17 03:30:00,68.0,66.5,30.08,NE,36,3.5,3.5,95,0.00,OVC,,0.00,0.0,WeatherDisplay:10.37,2013-08-17 07:30:00,
2013-08-17 03:31:00,68.0,66.5,30.08,North,5,3.5,3.5,95,0.00,OVC,,0.00,0.0,WeatherDisplay:10.37,2013-08-17 07:31:00,
2013-08-17 03:32:00,68.0,66.5,30.08,NNE,28,3.5,3.5,95,0.00,OVC,,0.00,0.0,WeatherDisplay:10.37,2013-08-17 07:32:00,
2013-08-17 03:34:00,68.0,66.5,30.07,NNE,16,5.8,5.8,95,0.00,OVC,,0.00,0.0,WeatherDisplay:10.37,2013-08-17 07:34:00,
2013-08-17 03:35:00,68.0,66.5,30.07,NE,43,4.6,4.6,95,0.00,OVC,,0.00,0.0,WeatherDisplay:10.37,2013-08-17 07:35:00,
2013-08-17 03:36:00,68.0,66.5,30.07,North,355,5.0,5.0,95,0.00,OVC,,0.00,0.0,WeatherDisplay:10.37,2013-08-17 07:36:00,
2013-08-17 03:38:00,68.0,66.5,30.07,East,89,3.5,3.5,95,0.00,OVC,,0.00,0.0,WeatherDisplay:10.37,2013-08-17 07:38:00,
2013-08-17 03:39:00,68.0,66.5,30.07,NNE,17,5.0,5.1,95,0.00,OVC,,0.00,0.0,WeatherDisplay:10.37,2013-08-17 07:39:00,
2013-08-17 03:40:00,68.0,66.5,30.07,NE,35,9.2,9.2,95,0.00,OVC,,0.00,0.0,WeatherDisplay:10.37,2013-08-17 07:40:00,
2013-08-17 03:41:00,68.0,66.5,30.07,ENE,62,5.0,5.0,95,0.00,OVC,,0.00,0.0,WeatherDisplay:10.37,2013-08-17 07:41:00,
2013-08-17 03:43:00,67.9,66.4,30.07,NE,44,8.1,8.1,95,0.00,OVC,,0.00,0.0,WeatherDisplay:10.37,2013-08-17 07:43:00,
2013-08-17 03:45:00,67.9,66.4,30.07,East,80,6.9,6.9,95,0.00,OVC,,0.00,0.0,WeatherDisplay:10.37,2013-08-17 07:45:00,
2013-08-17 03:46:00,68.0,66.5,30.06,NE,54,4.6,4.6,95,0.00,OVC,,0.00,0.0,WeatherDisplay:10.37,2013-08-17 07:46:00,
2013-08-17 03:48:00,68.0,66.5,30.06,ENE,73,3.5,3.5,95,0.00,OVC,,0.00,0.0,WeatherDisplay:10.37,2013-08-17 07:48:00,
2013-08-17 03:50:00,68.0,66.5,30.06,NE,34,3.5,3.5,95,0.00,OVC,,0.00,0.0,WeatherDisplay:10.37,2013-08-17 07:50:00,
2013-08-17 03:51:00,68.0,66.5,30.06,East,94,3.5,4.1,95,0.00,OVC,,0.00,0.0,WeatherDisplay:10.37,2013-08-17 07:51:00,
2013-08-17 03:54:00,68.0,66.5,30.06,ENE,63,5.8,5.8,95,0.00,OVC,,0.00,0.0,WeatherDisplay:10.37,2013-08-17 07:54:00,
2013-08-17 03:55:00,67.9,66.4,30.06,ENE,60,10.0,10.0,95,0.00,OVC,,0.00,0.0,WeatherDisplay:10.37,2013-08-17 07:55:00,
2013-08-17 03:56:00,67.9,66.4,30.06,East,84,10.4,10.4,95,0.00,OVC,,0.00,0.0,WeatherDisplay:10.37,2013-08-17 07:56:00,
2013-08-17 03:59:00,67.9,66.4,30.06,ENE,67,8.1,8.1,95,0.00,OVC,,0.00,0.0,WeatherDisplay:10.37,2013-08-17 07:59:00,
2013-08-17 04:00:00,67.9,66.4,30.06,NE,40,10.4,10.4,95,0.00,OVC,,0.00,0.0,WeatherDisplay:10.37,2013-08-17 08:00:00,
2013-08-17 04:01:00,67.9,66.4,30.06,ENE,74,10.4,10.4,95,0.00,OVC,,0.00,0.0,WeatherDisplay:10.37,2013-08-17 08:01:00,
2013-08-17 04:02:00,67.9,66.4,30.06,ENE,71,5.8,5.8,95,0.00,OVC,,0.00,0.0,WeatherDisplay:10.37,2013-08-17 08:02:00,
2013-08-17 04:04:00,67.9,66.4,30.06,ENE,74,8.1,8.1,95,0.00,OVC,,0.00,0.0,WeatherDisplay:10.37,2013-08-17 08:04:00,
2013-08-17 04:05:00,67.9,66.4,30.06,ENE,61,4.6,4.6,95,0.00,OVC,,0.00,0.0,WeatherDisplay:10.37,2013-08-17 08:05:00,
2013-08-17 04:06:00,68.0,66.5,30.06,ENE,70,5.8,5.8,95,0.00,OVC,,0.00,0.0,WeatherDisplay:10.37,2013-08-17 08:06:00,
2013-08-17 04:07:00,68.0,66.5,30.06,East,96,6.9,6.9,95,0.00,OVC,,0.00,0.0,WeatherDisplay:10.37,2013-08-17 08:07:00,
2013-08-17 04:09:00,68.0,66.5,30.06,NE,43,4.6,4.6,95,0.00,OVC,,0.00,0.0,WeatherDisplay:10.37,2013-08-17 08:09:00,
2013-08-17 04:10:00,68.0,66.5,30.06,ENE,72,4.6,4.6,95,0.00,OVC,,0.00,0.0,WeatherDisplay:10.37,2013-08-17 08:10:00,
2013-08-17 04:11:00,68.0,66.5,30.07,ENE,61,4.6,4.6,95,0.00,OVC,,0.00,0.0,WeatherDisplay:10.37,2013-08-17 08:11:00,
2013-08-17 04:12:00,68.0,66.5,30.07,NNE,22,6.0,6.0,95,0.00,OVC,,0.00,0.0,WeatherDisplay:10.37,2013-08-17 08:12:00,
2013-08-17 04:14:00,68.0,66.5,30.06,NE,47,8.1,8.1,95,0.00,OVC,,0.00,0.0,WeatherDisplay:10.37,2013-08-17 08:14:00,
2013-08-17 04:15:00,68.0,66.5,30.06,ENE,59,5.8,5.8,95,0.00,OVC,,0.00,0.0,WeatherDisplay:10.37,2013-08-17 08:15:00,
2013-08-17 04:16:00,68.0,66.5,30.06,ENE,58,7.0,7.0,95,0.00,OVC,,0.00,0.0,WeatherDisplay:10.37,2013-08-17 08:16:00,
2013-08-17 04:17:00,68.0,66.5,30.06,NE,51,6.9,6.9,95,0.00,OVC,,0.00,0.0,WeatherDisplay:10.37,2013-08-17 08:17:00,
2013-08-17 04:18:00,68.0,66.5,30.06,NE,53,8.1,8.1,95,0.00,OVC,,0.00,0.0,WeatherDisplay:10.37,2013-08-17 08:18:00,
2013-08-17 04:19:00,68.0,66.5,30.06,ENE,75,4.0,4.0,95,0.00,OVC,,0.00,0.0,WeatherDisplay:10.37,2013-08-17 08:19:00,
2013-08-17 04:21:00,68.0,66.5,30.06,ENE,62,6.9,6.9,95,0.00,OVC,,0.00,0.0,WeatherDisplay:10.37,2013-08-17 08:21:00,
2013-08-17 04:22:00,68.0,66.5,30.06,NE,55,4.6,4.6,95,0.00,OVC,,0.00,0.0,WeatherDisplay:10.37,2013-08-17 08:22:00,
2013-08-17 04:23:00,68.0,66.5,30.06,NE,37,3.5,3.5,95,0.00,OVC,,0.00,0.0,WeatherDisplay:10.37,2013-08-17 08:23:00,
2013-08-17 04:25:00,68.0,66.5,30.06,ENE,63,6.0,6.0,95,0.00,OVC,,0.00,0.0,WeatherDisplay:10.37,2013-08-17 08:25:00,
2013-08-17 04:26:00,68.0,66.5,30.06,ENE,57,6.9,6.9,95,0.00,OVC,,0.00,0.0,WeatherDisplay:10.37,2013-08-17 08:26:00,
2013-08-17 04:27:00,68.0,66.5,30.06,NNE,16,8.1,8.1,95,0.00,OVC,,0.00,0.0,WeatherDisplay:10.37,2013-08-17 08:27:00,
2013-08-17 04:28:00,68.0,66.5,30.06,East,82,7.0,7.0,95,0.00,OVC,,0.00,0.0,WeatherDisplay:10.37,2013-08-17 08:28:00,
2013-08-17 04:30:00,68.0,66.5,30.06,NNE,28,6.9,6.9,95,0.00,OVC,,0.00,0.0,WeatherDisplay:10.37,2013-08-17 08:30:00,
2013-08-17 04:31:00,68.0,66.5,30.06,NE,48,4.6,4.6,95,0.00,-RA,,0.00,0.0,WeatherDisplay:10.37,2013-08-17 08:31:00,
2013-08-17 04:32:00,68.0,66.5,30.06,ENE,57,5.8,5.8,95,0.00,-RA,,0.00,0.0,WeatherDisplay:10.37,2013-08-17 08:32:00,
2013-08-17 04:33:00,68.0,66.5,30.06,NNE,31,6.9,6.9,95,0.00,-RA,,0.00,0.0,WeatherDisplay:10.37,2013-08-17 08:33:00,
2013-08-17 04:35:00,68.0,66.5,30.06,NNE,26,6.9,6.9,95,0.00,-RA,,0.00,0.0,WeatherDisplay:10.37,2013-08-17 08:35:00,
2013-08-17 04:36:00,68.0,66.5,30.06,NE,51,6.9,6.9,95,0.00,-RA,,0.00,0.0,WeatherDisplay:10.37,2013-08-17 08:36:00,
2013-08-17 04:37:00,68.0,66.5,30.06,NNE,32,6.9,6.9,95,0.00,-RA,,0.00,0.0,WeatherDisplay:10.37,2013-08-17 08:37:00,
2013-08-17 04:38:00,68.0,66.5,30.06,NNE,19,3.5,3.5,95,0.00,-RA,,0.00,0.0,WeatherDisplay:10.37,2013-08-17 08:38:00,
2013-08-17 04:40:00,68.0,66.5,30.06,NNE,33,4.6,4.6,95,0.00,-RA,,0.00,0.0,WeatherDisplay:10.37,2013-08-17 08:40:00,
2013-08-17 04:42:00,68.0,66.5,30.06,North,5,4.6,4.6,95,0.00,-RA,,0.00,0.0,WeatherDisplay:10.37,2013-08-17 08:42:00,
2013-08-17 04:43:00,67.9,66.4,30.06,NE,46,4.6,4.6,95,0.00,-RA,,0.00,0.0,WeatherDisplay:10.37,2013-08-17 08:43:00,
2013-08-17 04:45:00,68.0,66.5,30.06,NE,35,5.8,5.8,95,0.00,-RA,,0.00,0.0,WeatherDisplay:10.37,2013-08-17 08:45:00,
2013-08-17 04:47:00,68.0,66.5,30.06,NE,47,3.5,3.5,95,0.00,-RA,,0.00,0.0,WeatherDisplay:10.37,2013-08-17 08:47:00,
2013-08-17 04:49:00,68.0,66.5,30.06,North,9,5.8,5.8,95,0.00,-RA,,0.00,0.0,WeatherDisplay:10.37,2013-08-17 08:49:00,
2013-08-17 04:50:00,68.0,66.5,30.06,NNE,27,4.0,4.5,95,0.00,-RA,,0.00,0.0,WeatherDisplay:10.37,2013-08-17 08:50:00,
2013-08-17 04:52:00,68.0,66.5,30.06,ENE,74,9.2,9.2,95,0.00,-RA,,0.00,0.0,WeatherDisplay:10.37,2013-08-17 08:52:00,
2013-08-17 04:53:00,68.0,66.5,30.06,NNE,28,5.8,5.8,95,0.00,-RA,,0.00,0.0,WeatherDisplay:10.37,2013-08-17 08:53:00,
2013-08-17 04:54:00,68.0,66.5,30.06,NNE,23,4.6,4.6,95,0.00,-RA,,0.00,0.0,WeatherDisplay:10.37,2013-08-17 08:54:00,
2013-08-17 04:56:00,68.0,66.5,30.06,NNE,30,5.8,5.8,95,0.00,-RA,,0.00,0.0,WeatherDisplay:10.37,2013-08-17 08:56:00,
2013-08-17 04:57:00,68.0,66.5,30.06,NNE,15,5.0,5.0,95,0.00,-RA,,0.00,0.0,WeatherDisplay:10.37,2013-08-17 08:57:00,
2013-08-17 04:58:00,68.0,66.5,30.06,NE,42,4.6,4.6,95,0.00,-RA,,0.00,0.0,WeatherDisplay:10.37,2013-08-17 08:58:00,
2013-08-17 04:59:00,68.0,66.5,30.06,NE,34,8.1,8.1,95,0.00,-RA,,0.00,0.0,WeatherDisplay:10.37,2013-08-17 08:59:00,
2013-08-17 05:01:00,68.0,66.5,30.06,ENE,58,3.5,3.5,95,0.00,OVC,,0.00,0.0,WeatherDisplay:10.37,2013-08-17 09:01:00,
2013-08-17 05:02:00,68.0,66.5,30.06,NNE,25,3.0,3.0,95,0.00,OVC,,0.00,0.0,WeatherDisplay:10.37,2013-08-17 09:02:00,
2013-08-17 05:03:00,68.0,66.5,30.06,ENE,70,5.8,5.8,95,0.00,OVC,,0.00,0.0,WeatherDisplay:10.37,2013-08-17 09:03:00,
2013-08-17 05:05:00,68.0,66.5,30.07,NE,34,6.0,6.0,95,0.00,OVC,,0.00,0.0,WeatherDisplay:10.37,2013-08-17 09:05:00,
2013-08-17 05:06:00,68.0,66.5,30.07,NNE,24,6.9,6.9,95,0.00,OVC,,0.00,0.0,WeatherDisplay:10.37,2013-08-17 09:06:00,
2013-08-17 05:07:00,68.0,66.5,30.07,NE,45,3.5,3.5,95,0.00,OVC,,0.00,0.0,WeatherDisplay:10.37,2013-08-17 09:07:00,
2013-08-17 05:08:00,68.0,66.5,30.07,NNE,23,3.5,3.5,95,0.00,OVC,,0.00,0.0,WeatherDisplay:10.37,2013-08-17 09:08:00,
2013-08-17 05:10:00,68.0,66.5,30.07,NNE,20,5.8,5.8,95,0.00,OVC,,0.00,0.0,WeatherDisplay:10.37,2013-08-17 09:10:00,
2013-08-17 05:11:00,68.0,66.5,30.07,NNE,26,5.0,5.0,95,0.00,OVC,,0.00,0.0,WeatherDisplay:10.37,2013-08-17 09:11:00,
2013-08-17 05:12:00,68.0,66.5,30.06,North,9,6.9,6.9,95,0.00,OVC,,0.00,0.0,WeatherDisplay:10.37,2013-08-17 09:12:00,
2013-08-17 05:13:00,68.0,66.5,30.07,NNE,26,5.8,5.8,95,0.00,OVC,,0.00,0.0,WeatherDisplay:10.37,2013-08-17 09:13:00,
2013-08-17 05:16:00,67.9,66.4,30.07,NE,46,4.6,4.6,95,0.00,OVC,,0.00,0.0,WeatherDisplay:10.37,2013-08-17 09:16:00,
2013-08-17 05:17:00,68.0,66.5,30.07,NE,39,4.6,4.6,95,0.00,OVC,,0.00,0.0,WeatherDisplay:10.37,2013-08-17 09:17:00,
2013-08-17 05:18:00,68.0,66.5,30.07,NE,38,3.5,3.5,95,0.00,OVC,,0.00,0.0,WeatherDisplay:10.37,2013-08-17 09:18:00,
2013-08-17 05:20:00,68.0,66.5,30.07,ENE,75,4.6,4.6,95,0.00,OVC,,0.00,0.0,WeatherDisplay:10.37,2013-08-17 09:20:00,
2013-08-17 05:21:00,68.0,66.5,30.07,ENE,64,5.0,5.0,95,0.00,OVC,,0.00,0.0,WeatherDisplay:10.37,2013-08-17 09:21:00,
2013-08-17 05:22:00,68.0,66.5,30.07,ENE,74,4.6,4.6,95,0.00,OVC,,0.00,0.0,WeatherDisplay:10.37,2013-08-17 09:22:00,
2013-08-17 05:23:00,68.0,66.5,30.07,NE,56,4.0,4.0,95,0.00,OVC,,0.00,0.0,WeatherDisplay:10.37,2013-08-17 09:23:00,
2013-08-17 05:24:00,68.0,66.5,30.07,NE,36,4.0,4.0,95,0.00,OVC,,0.00,0.0,WeatherDisplay:10.37,2013-08-17 09:24:00,
2013-08-17 05:25:00,68.0,66.5,30.07,NNE,28,4.6,4.6,95,0.00,OVC,,0.00,0.0,WeatherDisplay:10.37,2013-08-17 09:25:00,
2013-08-17 05:27:00,68.0,66.5,30.07,NE,52,4.0,4.0,95,0.00,OVC,,0.00,0.0,WeatherDisplay:10.37,2013-08-17 09:27:00,
2013-08-17 05:29:00,68.0,66.5,30.07,ENE,70,4.6,4.6,95,0.00,OVC,,0.00,0.0,WeatherDisplay:10.37,2013-08-17 09:29:00,
2013-08-17 05:31:00,68.0,66.5,30.07,ENE,58,3.5,3.5,95,0.00,OVC,,0.00,0.0,WeatherDisplay:10.37,2013-08-17 09:31:00,
2013-08-17 05:32:00,68.0,66.5,30.07,North,355,3.5,3.5,95,0.00,OVC,,0.00,0.0,WeatherDisplay:10.37,2013-08-17 09:32:00,
2013-08-17 05:35:00,68.0,66.5,30.07,NNE,22,1.2,1.2,95,0.00,OVC,,0.00,0.0,WeatherDisplay:10.37,2013-08-17 09:35:00,
2013-08-17 05:36:00,68.0,66.5,30.07,NE,38,2.3,2.3,95,0.00,OVC,,0.00,0.0,WeatherDisplay:10.37,2013-08-17 09:36:00,
2013-08-17 05:37:00,68.0,66.5,30.07,ENE,59,2.3,2.3,95,0.00,OVC,,0.00,0.0,WeatherDisplay:10.37,2013-08-17 09:37:00,
2013-08-17 05:38:00,68.0,66.5,30.07,NE,43,3.5,3.5,95,0.00,OVC,,0.00,0.0,WeatherDisplay:10.37,2013-08-17 09:38:00,
2013-08-17 05:40:00,68.0,66.5,30.07,NE,56,4.6,4.6,95,0.00,OVC,,0.00,0.0,WeatherDisplay:10.37,2013-08-17 09:40:00,
2013-08-17 05:41:00,68.0,66.5,30.07,NE,48,3.5,3.5,95,0.00,OVC,,0.00,0.0,WeatherDisplay:10.37,2013-08-17 09:41:00,
2013-08-17 05:42:00,67.9,66.4,30.07,NE,48,3.5,0.0,95,0.00,OVC,,0.00,0.0,WeatherDisplay:10.37,2013-08-17 09:42:00,
2013-08-17 05:43:00,67.9,66.4,30.07,NE,42,2.0,2.0,95,0.00,OVC,,0.00,0.0,WeatherDisplay:10.37,2013-08-17 09:43:00,
2013-08-17 05:45:00,67.9,66.4,30.07,NE,56,5.0,5.0,95,0.00,OVC,,0.00,0.0,WeatherDisplay:10.37,2013-08-17 09:45:00,
2013-08-17 05:46:00,67.9,66.4,30.07,NNE,19,4.6,4.6,95,0.00,OVC,,0.00,0.0,WeatherDisplay:10.37,2013-08-17 09:46:00,
2013-08-17 05:47:00,67.9,66.4,30.07,ENE,62,4.6,4.6,95,0.00,OVC,,0.00,0.0,WeatherDisplay:10.37,2013-08-17 09:47:00,
2013-08-17 05:48:00,67.9,66.4,30.07,ENE,63,3.5,3.5,95,0.00,OVC,,0.00,0.0,WeatherDisplay:10.37,2013-08-17 09:48:00,
2013-08-17 05:50:00,67.9,66.4,30.07,NE,36,4.6,4.6,95,0.00,OVC,,0.00,0.0,WeatherDisplay:10.37,2013-08-17 09:50:00,
2013-08-17 05:51:00,67.9,66.4,30.07,NNE,26,4.6,4.6,95,0.00,OVC,,0.00,0.0,WeatherDisplay:10.37,2013-08-17 09:51:00,
2013-08-17 05:53:00,67.9,66.4,30.07,NE,55,3.5,3.5,95,0.00,OVC,,0.00,0.0,WeatherDisplay:10.37,2013-08-17 09:53:00,
2013-08-17 05:55:00,67.9,66.7,30.07,NNE,27,3.5,3.5,96,0.01,RA,,0.01,0.0,WeatherDisplay:10.37,2013-08-17 09:55:00,
2013-08-17 05:56:00,67.8,66.6,30.07,NNE,20,5.8,5.8,96,0.01,RA,,0.01,0.0,WeatherDisplay:10.37,2013-08-17 09:56:00,
2013-08-17 05:58:00,67.8,66.6,30.07,NE,44,4.6,4.6,96,0.01,RA,,0.01,0.0,WeatherDisplay:10.37,2013-08-17 09:58:00,
2013-08-17 05:59:00,67.8,66.6,30.07,NE,51,3.5,3.5,96,0.01,RA,,0.01,0.0,WeatherDisplay:10.37,2013-08-17 09:59:00,
2013-08-17 06:00:00,67.8,66.6,30.07,NNE,21,2.3,2.4,96,0.01,RA,,0.01,0.0,WeatherDisplay:10.37,2013-08-17 10:00:00,
2013-08-17 06:01:00,67.8,66.6,30.07,ENE,57,3.5,3.5,96,0.01,RA,,0.01,0.0,WeatherDisplay:10.37,2013-08-17 10:01:00,
2013-08-17 06:03:00,67.9,66.7,30.07,NNE,24,4.0,4.0,96,0.01,RA,,0.01,0.0,WeatherDisplay:10.37,2013-08-17 10:03:00,
2013-08-17 06:04:00,67.8,66.6,30.07,NNE,33,4.0,4.0,96,0.01,RA,,0.01,0.0,WeatherDisplay:10.37,2013-08-17 10:04:00,
2013-08-17 06:05:00,67.8,66.6,30.07,ENE,65,3.5,3.5,96,0.01,OVC,,0.01,0.0,WeatherDisplay:10.37,2013-08-17 10:05:00,
2013-08-17 06:06:00,67.8,66.6,30.07,ENE,65,4.6,4.6,96,0.01,OVC,,0.01,0.0,WeatherDisplay:10.37,2013-08-17 10:06:00,
2013-08-17 06:09:00,67.8,66.6,30.06,NE,52,4.6,4.6,96,0.01,OVC,,0.01,0.0,WeatherDisplay:10.37,2013-08-17 10:09:00,
2013-08-17 06:11:00,67.8,66.6,30.07,NE,55,4.6,4.6,96,0.01,OVC,,0.01,0.0,WeatherDisplay:10.37,2013-08-17 10:11:00,
2013-08-17 06:12:00,67.8,66.6,30.07,NNE,26,4.6,4.6,96,0.01,OVC,,0.01,0.0,WeatherDisplay:10.37,2013-08-17 10:12:00,
2013-08-17 06:14:00,67.8,66.6,30.07,NE,45,4.6,4.6,96,0.01,OVC,,0.01,0.0,WeatherDisplay:10.37,2013-08-17 10:14:00,
2013-08-17 06:15:00,67.8,66.6,30.07,NE,46,3.5,3.5,96,0.01,OVC,,0.01,0.0,WeatherDisplay:10.37,2013-08-17 10:15:00,
2013-08-17 06:16:00,67.8,66.6,30.06,ENE,63,3.5,3.5,96,0.01,OVC,,0.01,0.0,WeatherDisplay:10.37,2013-08-17 10:16:00,
2013-08-17 06:17:00,67.8,66.6,30.06,NNE,32,7.0,7.0,96,0.01,OVC,,0.01,0.0,WeatherDisplay:10.37,2013-08-17 10:17:00,
2013-08-17 06:19:00,67.9,66.7,30.06,NNE,22,3.5,3.5,96,0.01,OVC,,0.01,0.0,WeatherDisplay:10.37,2013-08-17 10:19:00,
2013-08-17 06:21:00,67.8,66.6,30.06,NNE,30,3.5,3.5,96,0.01,OVC,,0.01,0.0,WeatherDisplay:10.37,2013-08-17 10:21:00,
2013-08-17 06:22:00,67.8,66.6,30.07,NNE,30,3.5,3.5,96,0.01,OVC,,0.01,0.0,WeatherDisplay:10.37,2013-08-17 10:22:00,
2013-08-17 06:24:00,67.8,66.6,30.06,NE,39,4.0,4.0,96,0.01,OVC,,0.01,0.0,WeatherDisplay:10.37,2013-08-17 10:24:00,
2013-08-17 06:26:00,67.8,66.6,30.07,NNE,26,4.6,4.6,96,0.01,OVC,,0.01,0.0,WeatherDisplay:10.37,2013-08-17 10:26:00,
2013-08-17 06:27:00,67.8,66.6,30.07,NNE,26,4.6,4.6,96,0.01,OVC,,0.01,0.0,WeatherDisplay:10.37,2013-08-17 10:27:00,
2013-08-17 06:29:00,67.8,66.6,30.07,NE,50,6.9,6.9,96,0.01,OVC,,0.01,0.0,WeatherDisplay:10.37,2013-08-17 10:29:00,
2013-08-17 06:32:00,67.8,66.6,30.07,NE,47,3.5,3.5,96,0.01,OVC,,0.01,0.0,WeatherDisplay:10.37,2013-08-17 10:32:00,
2013-08-17 06:33:00,67.8,66.6,30.07,NNE,30,2.0,2.0,96,0.01,OVC,,0.01,0.0,WeatherDisplay:10.37,2013-08-17 10:33:00,
2013-08-17 06:34:00,67.8,66.6,30.06,ENE,67,5.8,5.8,96,0.01,OVC,,0.01,0.0,WeatherDisplay:10.37,2013-08-17 10:34:00,
2013-08-17 06:37:00,67.8,66.6,30.07,NE,50,2.3,2.3,96,0.01,OVC,,0.01,0.0,WeatherDisplay:10.37,2013-08-17 10:37:00,
2013-08-17 06:38:00,67.8,66.6,30.07,ENE,78,3.5,3.5,96,0.01,OVC,,0.01,0.0,WeatherDisplay:10.37,2013-08-17 10:38:00,
2013-08-17 06:40:00,67.8,66.6,30.07,NE,34,3.5,3.5,96,0.01,OVC,,0.01,0.0,WeatherDisplay:10.37,2013-08-17 10:40:00,
2013-08-17 06:42:00,67.8,66.6,30.07,NE,42,3.0,3.0,96,0.01,OVC,,0.01,0.0,WeatherDisplay:10.37,2013-08-17 10:42:00,
2013-08-17 06:43:00,67.8,66.6,30.07,ENE,58,3.5,3.5,96,0.01,OVC,,0.01,0.0,WeatherDisplay:10.37,2013-08-17 10:43:00,
2013-08-17 06:45:00,67.8,66.6,30.08,NNE,26,3.5,3.5,96,0.01,OVC,,0.01,0.0,WeatherDisplay:10.37,2013-08-17 10:45:00,
2013-08-17 06:47:00,67.8,66.6,30.08,ENE,59,3.5,3.5,96,0.01,OVC,,0.01,0.0,WeatherDisplay:10.37,2013-08-17 10:47:00,
2013-08-17 06:48:00,67.8,66.6,30.08,NE,44,3.5,3.5,96,0.01,OVC,,0.01,0.0,WeatherDisplay:10.37,2013-08-17 10:48:00,
2013-08-17 06:50:00,67.9,66.7,30.08,NE,44,4.0,4.0,96,0.01,OVC,,0.01,0.0,WeatherDisplay:10.37,2013-08-17 10:50:00,
2013-08-17 06:52:00,67.9,66.7,30.08,NNE,19,4.0,4.0,96,0.01,OVC,,0.01,0.0,WeatherDisplay:10.37,2013-08-17 10:52:00,
2013-08-17 06:53:00,67.9,66.7,30.08,NNE,18,3.5,3.5,96,0.01,OVC,,0.01,0.0,WeatherDisplay:10.37,2013-08-17 10:53:00,
2013-08-17 06:54:00,67.9,66.7,30.08,NE,53,3.5,3.5,96,0.01,OVC,,0.01,0.0,WeatherDisplay:10.37,2013-08-17 10:54:00,
2013-08-17 06:55:00,67.9,66.7,30.08,NE,55,3.5,3.5,96,0.00,OVC,,0.01,0.0,WeatherDisplay:10.37,2013-08-17 10:55:00,
2013-08-17 06:57:00,67.8,66.6,30.08,NE,39,3.5,3.5,96,0.00,OVC,,0.01,0.0,WeatherDisplay:10.37,2013-08-17 10:57:00,
2013-08-17 06:58:00,67.9,66.7,30.08,NE,39,3.5,3.5,96,0.00,OVC,,0.01,0.0,WeatherDisplay:10.37,2013-08-17 10:58:00,
2013-08-17 06:59:00,67.9,66.7,30.08,NNE,26,3.5,3.5,96,0.00,OVC,,0.01,0.0,WeatherDisplay:10.37,2013-08-17 10:59:00,
2013-08-17 07:00:00,67.9,66.7,30.08,ENE,66,4.0,4.0,96,0.00,OVC,,0.01,0.0,WeatherDisplay:10.37,2013-08-17 11:00:00,
2013-08-17 07:02:00,67.8,66.6,30.08,NNE,16,6.9,6.9,96,0.00,OVC,,0.01,0.0,WeatherDisplay:10.37,2013-08-17 11:02:00,
2013-08-17 07:03:00,67.8,66.6,30.08,North,360,6.9,6.9,96,0.00,OVC,,0.01,0.0,WeatherDisplay:10.37,2013-08-17 11:03:00,
2013-08-17 07:04:00,67.9,66.7,30.08,ENE,74,4.6,4.6,96,0.00,OVC,,0.01,0.0,WeatherDisplay:10.37,2013-08-17 11:04:00,
2013-08-17 07:06:00,67.9,66.7,30.07,NNE,32,7.0,7.0,96,0.00,OVC,,0.01,0.0,WeatherDisplay:10.37,2013-08-17 11:06:00,
2013-08-17 07:07:00,67.9,66.7,30.08,NE,38,4.0,4.0,96,0.00,OVC,,0.01,0.0,WeatherDisplay:10.37,2013-08-17 11:07:00,
2013-08-17 07:08:00,67.9,66.7,30.08,NE,34,3.5,3.5,96,0.00,OVC,,0.01,0.0,WeatherDisplay:10.37,2013-08-17 11:08:00,
2013-08-17 07:10:00,67.9,66.7,30.08,NNE,14,4.6,4.6,96,0.00,OVC,,0.01,5.0,WeatherDisplay:10.37,2013-08-17 11:10:00,
2013-08-17 07:11:00,67.9,66.7,30.08,ENE,61,4.6,4.6,96,0.00,OVC,,0.01,5.0,WeatherDisplay:10.37,2013-08-17 11:11:00,
2013-08-17 07:13:00,67.9,66.7,30.08,NNE,28,3.5,3.5,96,0.00,OVC,,0.01,5.0,WeatherDisplay:10.37,2013-08-17 11:13:00,
2013-08-17 07:15:00,67.9,66.7,30.08,NE,51,3.5,4.5,96,0.00,OVC,,0.01,7.0,WeatherDisplay:10.37,2013-08-17 11:15:00,
2013-08-17 07:16:00,67.9,66.7,30.08,ENE,63,6.9,6.9,96,0.00,OVC,,0.01,7.0,WeatherDisplay:10.37,2013-08-17 11:16:00,
2013-08-17 07:18:00,67.9,66.7,30.08,NE,44,4.6,4.6,96,0.00,OVC,,0.01,7.0,WeatherDisplay:10.37,2013-08-17 11:18:00,
2013-08-17 07:21:00,67.9,66.7,30.08,NE,49,3.5,3.5,96,0.00,OVC,,0.01,7.0,WeatherDisplay:10.37,2013-08-17 11:21:00,
2013-08-17 07:23:00,67.9,66.7,30.07,NE,40,4.6,4.6,96,0.00,OVC,,0.01,7.0,WeatherDisplay:10.37,2013-08-17 11:23:00,
2013-08-17 07:24:00,67.9,66.7,30.07,ENE,63,4.6,4.6,96,0.00,OVC,,0.01,7.0,WeatherDisplay:10.37,2013-08-17 11:24:00,
2013-08-17 07:26:00,67.9,66.7,30.07,ENE,62,8.1,8.1,96,0.00,OVC,,0.01,9.0,WeatherDisplay:10.37,2013-08-17 11:26:00,
2013-08-17 07:27:00,67.9,66.7,30.07,NE,40,6.9,6.9,96,0.00,OVC,,0.01,9.0,WeatherDisplay:10.37,2013-08-17 11:27:00,
2013-08-17 07:28:00,67.9,66.7,30.07,NE,49,5.8,5.8,96,0.00,OVC,,0.01,9.0,WeatherDisplay:10.37,2013-08-17 11:28:00,
2013-08-17 07:29:00,67.9,66.7,30.07,ENE,71,3.5,3.5,96,0.00,OVC,,0.01,9.0,WeatherDisplay:10.37,2013-08-17 11:29:00,
2013-08-17 07:31:00,68.0,66.8,30.08,NE,42,3.5,3.5,96,0.00,OVC,,0.01,9.0,WeatherDisplay:10.37,2013-08-17 11:31:00,
2013-08-17 07:32:00,67.9,66.7,30.08,NE,46,3.5,3.5,96,0.00,OVC,,0.01,9.0,WeatherDisplay:10.37,2013-08-17 11:32:00,
2013-08-17 07:33:00,68.0,66.8,30.08,ENE,78,4.0,4.0,96,0.00,OVC,,0.01,9.0,WeatherDisplay:10.37,2013-08-17 11:33:00,
2013-08-17 07:34:00,68.0,66.8,30.08,NE,49,5.8,5.8,96,0.00,OVC,,0.01,11.0,WeatherDisplay:10.37,2013-08-17 11:34:00,
2013-08-17 07:35:00,68.0,66.8,30.07,NE,56,3.5,3.5,96,0.00,OVC,,0.01,12.0,WeatherDisplay:10.37,2013-08-17 11:35:00,
2013-08-17 07:36:00,68.0,66.8,30.07,ENE,59,5.0,5.0,96,0.00,OVC,,0.01,12.0,WeatherDisplay:10.37,2013-08-17 11:36:00,
2013-08-17 07:37:00,68.0,66.8,30.07,NNE,33,4.6,4.8,96,0.00,OVC,,0.01,12.0,WeatherDisplay:10.37,2013-08-17 11:37:00,
2013-08-17 07:38:00,68.0,66.8,30.07,ENE,69,6.9,6.9,96,0.00,OVC,,0.01,12.0,WeatherDisplay:10.37,2013-08-17 11:38:00,
2013-08-17 07:39:00,68.0,66.8,30.07,ENE,61,5.8,5.8,96,0.00,OVC,,0.01,14.0,WeatherDisplay:10.37,2013-08-17 11:39:00,
2013-08-17 07:40:00,68.0,66.8,30.07,NE,35,5.0,5.0,96,0.00,OVC,,0.01,16.0,WeatherDisplay:10.37,2013-08-17 11:40:00,
2013-08-17 07:41:00,68.0,66.8,30.07,NE,47,4.6,4.6,96,0.00,OVC,,0.01,19.0,WeatherDisplay:10.37,2013-08-17 11:41:00,
2013-08-17 07:42:00,68.0,66.8,30.07,NE,40,5.0,5.0,96,0.00,OVC,,0.01,21.0,WeatherDisplay:10.37,2013-08-17 11:42:00,
2013-08-17 07:43:00,68.0,66.8,30.08,NE,46,8.1,8.1,96,0.00,OVC,,0.01,23.0,WeatherDisplay:10.37,2013-08-17 11:43:00,
2013-08-17 07:44:00,68.0,66.8,30.08,NE,46,4.6,4.6,96,0.00,OVC,,0.01,23.0,WeatherDisplay:10.37,2013-08-17 11:44:00,
2013-08-17 07:45:00,68.1,66.9,30.08,NE,35,2.3,2.3,96,0.00,OVC,,0.01,23.0,WeatherDisplay:10.37,2013-08-17 11:45:00,
2013-08-17 07:47:00,68.1,66.9,30.08,NE,42,5.0,5.0,96,0.00,OVC,,0.01,21.0,WeatherDisplay:10.37,2013-08-17 11:47:00,
2013-08-17 07:48:00,68.1,66.9,30.08,NE,34,4.6,4.6,96,0.00,OVC,,0.01,23.0,WeatherDisplay:10.37,2013-08-17 11:48:00,
2013-08-17 07:49:00,68.0,66.8,30.08,NE,55,4.6,4.6,96,0.00,OVC,,0.01,23.0,WeatherDisplay:10.37,2013-08-17 11:49:00,
2013-08-17 07:50:00,68.0,66.8,30.08,NE,47,2.3,2.3,96,0.00,OVC,,0.01,19.0,WeatherDisplay:10.37,2013-08-17 11:50:00,
2013-08-17 07:52:00,68.1,66.9,30.08,NE,40,2.3,2.3,96,0.00,OVC,,0.01,18.0,WeatherDisplay:10.37,2013-08-17 11:52:00,
2013-08-17 07:53:00,68.1,66.9,30.08,NNE,19,6.0,6.0,96,0.00,OVC,,0.01,18.0,WeatherDisplay:10.37,2013-08-17 11:53:00,
2013-08-17 07:54:00,68.1,66.9,30.08,NNE,33,6.9,6.9,96,0.00,OVC,,0.01,18.0,WeatherDisplay:10.37,2013-08-17 11:54:00,
2013-08-17 07:55:00,68.1,66.9,30.08,NE,55,4.6,4.6,96,0.00,OVC,,0.01,21.0,WeatherDisplay:10.37,2013-08-17 11:55:00,
2013-08-17 07:57:00,68.1,66.9,30.08,NNE,12,4.6,4.6,96,0.00,OVC,,0.01,23.0,WeatherDisplay:10.37,2013-08-17 11:57:00,
2013-08-17 07:58:00,68.1,66.9,30.08,ENE,59,9.0,9.0,96,0.00,OVC,,0.01,23.0,WeatherDisplay:10.37,2013-08-17 11:58:00,
2013-08-17 07:59:00,68.1,66.9,30.08,NE,35,9.2,9.2,96,0.00,OVC,,0.01,21.0,WeatherDisplay:10.37,2013-08-17 11:59:00,
2013-08-17 08:00:00,68.1,66.9,30.08,NE,44,3.5,3.5,96,0.00,OVC,,0.01,21.0,WeatherDisplay:10.37,2013-08-17 12:00:00,
2013-08-17 08:02:00,68.1,66.9,30.08,NNE,16,4.6,4.6,96,0.00,OVC,,0.01,21.0,WeatherDisplay:10.37,2013-08-17 12:02:00,
2013-08-17 08:04:00,68.1,66.9,30.08,NE,43,3.5,3.5,96,0.00,OVC,,0.01,21.0,WeatherDisplay:10.37,2013-08-17 12:04:00,
2013-08-17 08:06:00,68.1,66.9,30.08,NNE,32,3.5,3.5,96,0.00,OVC,,0.01,25.0,WeatherDisplay:10.37,2013-08-17 12:06:00,
2013-08-17 08:07:00,68.2,67.0,30.08,NNE,22,4.0,4.0,96,0.00,OVC,,0.01,28.0,WeatherDisplay:10.37,2013-08-17 12:07:00,
2013-08-17 08:09:00,68.2,67.0,30.08,ENE,63,5.8,5.8,96,0.00,OVC,,0.01,30.0,WeatherDisplay:10.37,2013-08-17 12:09:00,
2013-08-17 08:11:00,68.3,67.1,30.08,NE,50,10.4,10.4,96,0.00,OVC,,0.01,28.0,WeatherDisplay:10.37,2013-08-17 12:11:00,
2013-08-17 08:12:00,68.2,67.0,30.08,NE,34,3.5,3.5,96,0.00,OVC,,0.01,28.0,WeatherDisplay:10.37,2013-08-17 12:12:00,
2013-08-17 08:14:00,68.2,67.0,30.08,NE,38,3.5,3.5,96,0.00,OVC,,0.01,28.0,WeatherDisplay:10.37,2013-08-17 12:14:00,
2013-08-17 08:15:00,68.2,67.0,30.08,ENE,57,5.0,5.0,96,0.00,OVC,,0.01,28.0,WeatherDisplay:10.37,2013-08-17 12:15:00,
2013-08-17 08:16:00,68.3,67.1,30.07,NNE,26,4.6,4.6,96,0.00,OVC,,0.01,26.0,WeatherDisplay:10.37,2013-08-17 12:16:00,
2013-08-17 08:17:00,68.3,67.1,30.07,ENE,76,5.8,5.8,96,0.00,OVC,,0.01,26.0,WeatherDisplay:10.37,2013-08-17 12:17:00,
2013-08-17 08:19:00,68.3,67.1,30.07,NE,37,5.8,5.8,96,0.00,OVC,,0.01,28.0,WeatherDisplay:10.37,2013-08-17 12:19:00,
2013-08-17 08:20:00,68.3,67.1,30.07,NE,48,5.8,5.8,96,0.00,OVC,,0.01,26.0,WeatherDisplay:10.37,2013-08-17 12:20:00,
2013-08-17 08:22:00,68.3,67.1,30.07,ENE,71,4.6,4.6,96,0.00,OVC,,0.01,26.0,WeatherDisplay:10.37,2013-08-17 12:22:00,
2013-08-17 08:23:00,68.3,67.1,30.07,ENE,61,4.6,4.6,96,0.00,OVC,,0.01,26.0,WeatherDisplay:10.37,2013-08-17 12:23:00,
2013-08-17 08:24:00,68.3,67.1,30.07,ENE,71,4.6,4.6,96,0.00,OVC,,0.01,26.0,WeatherDisplay:10.37,2013-08-17 12:24:00,
2013-08-17 08:25:00,68.4,67.2,30.07,East,83,7.0,7.0,96,0.00,OVC,,0.01,30.0,WeatherDisplay:10.37,2013-08-17 12:25:00,
2013-08-17 08:27:00,68.3,67.1,30.08,East,85,6.9,6.9,96,0.00,OVC,,0.01,40.0,WeatherDisplay:10.37,2013-08-17 12:27:00,
2013-08-17 08:28:00,68.3,67.1,30.08,ENE,67,5.0,5.0,96,0.00,OVC,,0.01,40.0,WeatherDisplay:10.37,2013-08-17 12:28:00,
2013-08-17 08:30:00,68.4,67.2,30.07,East,90,8.1,8.1,96,0.00,OVC,,0.01,51.0,WeatherDisplay:10.37,2013-08-17 12:30:00,
2013-08-17 08:31:00,68.4,67.2,30.08,East,101,8.1,8.1,96,0.00,OVC,,0.01,56.0,WeatherDisplay:10.37,2013-08-17 12:31:00,
2013-08-17 08:32:00,68.5,67.3,30.08,ENE,71,7.0,7.0,96,0.00,OVC,,0.01,54.0,WeatherDisplay:10.37,2013-08-17 12:32:00,
2013-08-17 08:33:00,68.5,67.3,30.08,NNE,32,6.9,6.9,96,0.00,OVC,,0.01,54.0,WeatherDisplay:10.37,2013-08-17 12:33:00,
2013-08-17 08:35:00,68.5,67.3,30.08,ENE,57,8.1,8.1,96,0.00,OVC,,0.01,65.0,WeatherDisplay:10.37,2013-08-17 12:35:00,
2013-08-17 08:36:00,68.5,67.3,30.08,East,85,7.0,7.0,96,0.00,OVC,,0.01,65.0,WeatherDisplay:10.37,2013-08-17 12:36:00,
2013-08-17 08:38:00,68.5,67.3,30.08,NE,35,5.8,5.8,96,0.00,OVC,,0.01,63.0,WeatherDisplay:10.37,2013-08-17 12:38:00,
2013-08-17 08:39:00,68.5,67.3,30.08,NE,55,5.8,5.8,96,0.00,OVC,,0.01,62.0,WeatherDisplay:10.37,2013-08-17 12:39:00,
2013-08-17 08:40:00,68.6,67.4,30.08,NE,47,3.0,3.0,96,0.00,OVC,,0.01,62.0,WeatherDisplay:10.37,2013-08-17 12:40:00,
2013-08-17 08:41:00,68.6,67.4,30.08,NE,47,2.3,2.3,96,0.00,OVC,,0.01,60.0,WeatherDisplay:10.37,2013-08-17 12:41:00,
2013-08-17 08:43:00,68.7,67.5,30.08,ENE,78,3.5,3.5,96,0.00,OVC,,0.01,60.0,WeatherDisplay:10.37,2013-08-17 12:43:00,
2013-08-17 08:44:00,68.6,67.4,30.08,ENE,75,4.6,4.6,96,0.00,OVC,,0.01,58.0,WeatherDisplay:10.37,2013-08-17 12:44:00,
2013-08-17 08:46:00,68.6,67.4,30.08,East,87,4.6,4.6,96,0.00,OVC,,0.01,54.0,WeatherDisplay:10.37,2013-08-17 12:46:00,
2013-08-17 08:48:00,68.7,67.5,30.08,ENE,74,3.5,3.5,96,0.00,OVC,,0.01,58.0,WeatherDisplay:10.37,2013-08-17 12:48:00,
2013-08-17 08:49:00,68.7,67.5,30.08,ENE,75,3.5,3.5,96,0.00,OVC,,0.01,58.0,WeatherDisplay:10.37,2013-08-17 12:49:00,
2013-08-17 08:51:00,68.7,67.5,30.09,ENE,58,3.5,3.5,96,0.00,OVC,,0.01,56.0,WeatherDisplay:10.37,2013-08-17 12:51:00,
2013-08-17 08:53:00,68.8,67.6,30.09,ENE,58,3.5,3.5,96,0.00,OVC,,0.01,56.0,WeatherDisplay:10.37,2013-08-17 12:53:00,
2013-08-17 08:54:00,68.8,67.6,30.09,NNE,24,3.5,3.5,96,0.00,OVC,,0.01,54.0,WeatherDisplay:10.37,2013-08-17 12:54:00,
2013-08-17 08:56:00,68.8,67.6,30.09,NE,37,4.6,4.6,96,0.00,OVC,,0.01,53.0,WeatherDisplay:10.37,2013-08-17 12:56:00,
2013-08-17 08:59:00,68.8,67.6,30.09,ENE,64,4.6,4.6,96,0.00,OVC,,0.01,53.0,WeatherDisplay:10.37,2013-08-17 12:59:00,
2013-08-17 09:00:00,68.8,67.6,30.09,NNE,31,5.0,5.0,96,0.00,OVC,,0.01,56.0,WeatherDisplay:10.37,2013-08-17 13:00:00,
2013-08-17 09:01:00,68.8,67.6,30.09,East,81,6.9,6.9,96,0.00,OVC,,0.01,54.0,WeatherDisplay:10.37,2013-08-17 13:01:00,
2013-08-17 09:04:00,68.9,67.7,30.09,North,9,5.8,5.8,96,0.00,OVC,,0.01,56.0,WeatherDisplay:10.37,2013-08-17 13:04:00,
2013-08-17 09:05:00,68.9,67.7,30.09,ENE,60,3.5,3.5,96,0.00,OVC,,0.01,51.0,WeatherDisplay:10.37,2013-08-17 13:05:00,
2013-08-17 09:06:00,68.8,67.6,30.09,ENE,76,4.6,4.6,96,0.00,OVC,,0.01,49.0,WeatherDisplay:10.37,2013-08-17 13:06:00,
2013-08-17 09:07:00,68.9,67.7,30.09,ENE,76,4.6,4.6,96,0.00,OVC,,0.01,51.0,WeatherDisplay:10.37,2013-08-17 13:07:00,
2013-08-17 09:09:00,68.9,67.7,30.09,East,80,2.3,2.3,96,0.00,OVC,,0.01,53.0,WeatherDisplay:10.37,2013-08-17 13:09:00,
2013-08-17 09:10:00,69.0,67.8,30.09,ENE,71,3.5,3.5,96,0.00,OVC,,0.01,54.0,WeatherDisplay:10.37,2013-08-17 13:10:00,
2013-08-17 09:11:00,69.0,67.8,30.09,East,82,5.0,5.0,96,0.00,OVC,,0.01,58.0,WeatherDisplay:10.37,2013-08-17 13:11:00,
2013-08-17 09:12:00,69.0,67.8,30.09,East,82,5.0,5.0,96,0.00,OVC,,0.01,58.0,WeatherDisplay:10.37,2013-08-17 13:12:00,
2013-08-17 09:14:00,69.0,67.8,30.09,NE,46,3.5,3.5,96,0.00,OVC,,0.01,62.0,WeatherDisplay:10.37,2013-08-17 13:14:00,
2013-08-17 09:15:00,69.1,67.9,30.09,NE,46,3.5,3.5,96,0.00,OVC,,0.01,62.0,WeatherDisplay:10.37,2013-08-17 13:15:00,
2013-08-17 09:16:00,69.2,68.0,30.09,NE,47,2.3,2.3,96,0.00,OVC,,0.01,63.0,WeatherDisplay:10.37,2013-08-17 13:16:00,
2013-08-17 09:17:00,69.2,68.0,30.09,NE,47,2.3,2.3,96,0.00,OVC,,0.01,63.0,WeatherDisplay:10.37,2013-08-17 13:17:00,
2013-08-17 09:19:00,69.2,68.0,30.09,NE,36,3.5,3.5,96,0.00,OVC,,0.01,60.0,WeatherDisplay:10.37,2013-08-17 13:19:00,
2013-08-17 09:20:00,69.2,68.0,30.09,NNE,17,3.5,3.5,96,0.00,OVC,,0.01,65.0,WeatherDisplay:10.37,2013-08-17 13:20:00,
2013-08-17 09:22:00,69.2,68.0,30.10,NNE,27,3.5,3.5,96,0.00,OVC,,0.01,63.0,WeatherDisplay:10.37,2013-08-17 13:22:00,
2013-08-17 09:24:00,69.2,68.0,30.10,NE,42,3.5,3.5,96,0.00,OVC,,0.01,65.0,WeatherDisplay:10.37,2013-08-17 13:24:00,
2013-08-17 09:25:00,69.2,68.0,30.10,ENE,57,3.5,3.5,96,0.00,OVC,,0.01,65.0,WeatherDisplay:10.37,2013-08-17 13:25:00,
2013-08-17 09:26:00,69.2,68.0,30.10,ENE,63,3.5,3.5,96,0.00,OVC,,0.01,67.0,WeatherDisplay:10.37,2013-08-17 13:26:00,
2013-08-17 09:27:00,69.2,68.0,30.10,North,5,5.0,5.0,96,0.00,OVC,,0.01,70.0,WeatherDisplay:10.37,2013-08-17 13:27:00,
2013-08-17 09:29:00,69.2,68.0,30.10,NE,46,3.5,3.5,96,0.00,OVC,,0.01,79.0,WeatherDisplay:10.37,2013-08-17 13:29:00,
2013-08-17 09:31:00,69.2,68.0,30.10,NE,40,3.5,3.5,96,0.00,OVC,,0.01,74.0,WeatherDisplay:10.37,2013-08-17 13:31:00,
2013-08-17 09:32:00,69.3,68.1,30.10,NE,50,2.3,2.3,96,0.00,OVC,,0.01,76.0,WeatherDisplay:10.37,2013-08-17 13:32:00,
2013-08-17 09:35:00,69.4,68.2,30.10,NNE,17,3.5,3.5,96,0.00,OVC,,0.01,84.0,WeatherDisplay:10.37,2013-08-17 13:35:00,
2013-08-17 09:36:00,69.4,68.2,30.09,ENE,65,3.5,3.5,96,0.00,OVC,,0.01,95.0,WeatherDisplay:10.37,2013-08-17 13:36:00,
2013-08-17 09:37:00,69.4,68.2,30.10,ENE,66,4.6,4.6,96,0.00,OVC,,0.01,95.0,WeatherDisplay:10.37,2013-08-17 13:37:00,
2013-08-17 09:40:00,69.5,68.3,30.10,NE,46,3.5,3.5,96,0.00,OVC,,0.01,97.0,WeatherDisplay:10.37,2013-08-17 13:40:00,
2013-08-17 09:41:00,69.6,68.4,30.10,ENE,69,3.5,3.5,96,0.00,OVC,,0.01,98.0,WeatherDisplay:10.37,2013-08-17 13:41:00,
2013-08-17 09:42:00,69.7,68.8,30.10,NE,50,3.5,3.5,97,0.00,OVC,,0.01,97.0,WeatherDisplay:10.37,2013-08-17 13:42:00,
2013-08-17 09:46:00,69.7,68.5,30.09,NE,44,3.5,3.5,96,0.00,OVC,,0.01,90.0,WeatherDisplay:10.37,2013-08-17 13:46:00,
2013-08-17 09:47:00,69.6,68.4,30.09,ENE,63,3.5,3.5,96,0.00,OVC,,0.01,84.0,WeatherDisplay:10.37,2013-08-17 13:47:00,
2013-08-17 09:48:00,69.6,68.4,30.10,ENE,59,4.6,4.6,96,0.00,OVC,,0.01,83.0,WeatherDisplay:10.37,2013-08-17 13:48:00,
2013-08-17 09:51:00,69.7,68.5,30.10,NNE,19,3.0,3.0,96,0.00,OVC,,0.01,74.0,WeatherDisplay:10.37,2013-08-17 13:51:00,
2013-08-17 09:52:00,69.7,68.5,30.10,NNE,13,3.5,3.5,96,0.00,OVC,,0.01,74.0,WeatherDisplay:10.37,2013-08-17 13:52:00,
2013-08-17 09:53:00,69.7,68.5,30.10,NE,34,4.6,4.6,96,0.00,OVC,,0.01,74.0,WeatherDisplay:10.37,2013-08-17 13:53:00,
2013-08-17 09:56:00,69.6,68.4,30.10,NE,55,5.8,5.8,96,0.00,OVC,,0.01,67.0,WeatherDisplay:10.37,2013-08-17 13:56:00,
2013-08-17 09:57:00,69.6,68.4,30.10,North,11,5.8,5.8,96,0.00,OVC,,0.01,67.0,WeatherDisplay:10.37,2013-08-17 13:57:00,
2013-08-17 09:58:00,69.6,68.4,30.10,North,355,4.6,4.6,96,0.00,OVC,,0.01,63.0,WeatherDisplay:10.37,2013-08-17 13:58:00,
2013-08-17 10:02:00,69.6,68.4,30.10,North,5,3.5,3.5,96,0.00,OVC,,0.01,62.0,WeatherDisplay:10.37,2013-08-17 14:02:00,
2013-08-17 10:03:00,69.6,68.4,30.10,NE,50,3.5,3.5,96,0.00,OVC,,0.01,63.0,WeatherDisplay:10.37,2013-08-17 14:03:00,
2013-08-17 10:07:00,69.7,68.5,30.10,NE,50,1.2,1.2,96,0.00,OVC,,0.01,62.0,WeatherDisplay:10.37,2013-08-17 14:07:00,
2013-08-17 10:08:00,69.7,68.5,30.10,NE,43,1.2,1.2,96,0.00,OVC,,0.01,62.0,WeatherDisplay:10.37,2013-08-17 14:08:00,
2013-08-17 10:12:00,69.8,68.6,30.10,NNE,24,3.5,3.5,96,0.00,OVC,,0.01,67.0,WeatherDisplay:10.37,2013-08-17 14:12:00,
2013-08-17 10:13:00,69.8,68.6,30.10,NNE,24,3.5,3.5,96,0.00,OVC,,0.01,69.0,WeatherDisplay:10.37,2013-08-17 14:13:00,
2013-08-17 10:14:00,69.8,68.6,30.10,NNE,26,3.5,3.5,96,0.00,OVC,,0.01,65.0,WeatherDisplay:10.37,2013-08-17 14:14:00,
2013-08-17 10:17:00,69.8,68.6,30.10,ENE,78,4.6,4.6,96,0.00,OVC,,0.01,51.0,WeatherDisplay:10.37,2013-08-17 14:17:00,
2013-08-17 10:18:00,69.8,68.6,30.10,East,81,3.5,3.5,96,0.00,OVC,,0.01,51.0,WeatherDisplay:10.37,2013-08-17 14:18:00,
2013-08-17 10:19:00,69.8,68.6,30.10,East,82,3.5,3.5,96,0.00,OVC,,0.01,53.0,WeatherDisplay:10.37,2013-08-17 14:19:00,
2013-08-17 10:23:00,69.8,68.6,30.10,NE,37,3.5,3.5,96,0.00,OVC,,0.01,69.0,WeatherDisplay:10.37,2013-08-17 14:23:00,
2013-08-17 10:24:00,69.8,68.6,30.10,NE,37,3.5,3.5,96,0.00,OVC,,0.01,72.0,WeatherDisplay:10.37,2013-08-17 14:24:00,
2013-08-17 10:28:00,69.9,68.7,30.11,NE,34,3.5,3.5,96,0.00,OVC,,0.01,79.0,WeatherDisplay:10.37,2013-08-17 14:28:00,
2013-08-17 10:29:00,69.9,68.7,30.11,NE,42,3.0,3.0,96,0.00,OVC,,0.01,81.0,WeatherDisplay:10.37,2013-08-17 14:29:00,
2013-08-17 10:30:00,69.9,68.7,30.11,NE,42,3.5,3.5,96,0.00,OVC,,0.01,86.0,WeatherDisplay:10.37,2013-08-17 14:30:00,
2013-08-17 10:33:00,70.0,68.8,30.11,NE,55,3.5,3.5,96,0.00,OVC,,0.01,114.0,WeatherDisplay:10.37,2013-08-17 14:33:00,
2013-08-17 10:34:00,70.1,68.9,30.11,NE,36,4.6,4.6,96,0.00,OVC,,0.01,125.0,WeatherDisplay:10.37,2013-08-17 14:34:00,
2013-08-17 10:35:00,70.1,68.9,30.11,North,11,3.5,3.5,96,0.00,OVC,,0.01,135.0,WeatherDisplay:10.37,2013-08-17 14:35:00,
2013-08-17 10:38:00,70.2,69.0,30.11,NE,42,4.6,4.6,96,0.00,OVC,,0.01,141.0,WeatherDisplay:10.37,2013-08-17 14:38:00,
2013-08-17 10:39:00,70.2,69.0,30.11,ENE,70,4.6,4.6,96,0.00,OVC,,0.01,137.0,WeatherDisplay:10.37,2013-08-17 14:39:00,
2013-08-17 10:40:00,70.2,69.0,30.11,ENE,63,3.5,3.5,96,0.00,OVC,,0.01,144.0,WeatherDisplay:10.37,2013-08-17 14:40:00,
2013-08-17 10:43:00,70.4,69.5,30.11,ENE,67,4.6,4.6,97,0.00,OVC,,0.01,132.0,WeatherDisplay:10.37,2013-08-17 14:43:00,
2013-08-17 10:44:00,70.4,69.2,30.11,ENE,74,3.5,3.5,96,0.00,OVC,,0.01,128.0,WeatherDisplay:10.37,2013-08-17 14:44:00,
2013-08-17 10:45:00,70.5,69.3,30.11,NE,47,3.5,3.5,96,0.00,OVC,,0.01,118.0,WeatherDisplay:10.37,2013-08-17 14:45:00,
2013-08-17 10:48:00,70.5,69.3,30.11,NE,36,3.5,3.5,96,0.00,OVC,,0.01,113.0,WeatherDisplay:10.37,2013-08-17 14:48:00,
2013-08-17 10:49:00,70.5,69.3,30.11,NE,36,3.5,3.5,96,0.00,OVC,,0.01,113.0,WeatherDisplay:10.37,2013-08-17 14:49:00,
2013-08-17 10:50:00,70.5,69.3,30.11,East,84,3.5,3.5,96,0.00,OVC,,0.01,121.0,WeatherDisplay:10.37,2013-08-17 14:50:00,
2013-08-17 10:53:00,70.5,69.3,30.11,East,98,4.6,4.6,96,0.00,OVC,,0.01,135.0,WeatherDisplay:10.37,2013-08-17 14:53:00,
2013-08-17 10:54:00,70.5,69.3,30.11,East,98,4.6,4.6,96,0.00,OVC,,0.01,135.0,WeatherDisplay:10.37,2013-08-17 14:54:00,
2013-08-17 10:55:00,70.6,69.4,30.11,East,98,4.6,4.6,96,0.00,OVC,,0.01,134.0,WeatherDisplay:10.37,2013-08-17 14:55:00,
2013-08-17 10:56:00,70.6,69.4,30.11,East,95,3.5,3.5,96,0.00,OVC,,0.01,128.0,WeatherDisplay:10.37,2013-08-17 14:56:00,
2013-08-17 10:58:00,70.7,69.5,30.11,ENE,59,4.0,4.0,96,0.00,OVC,,0.01,135.0,WeatherDisplay:10.37,2013-08-17 14:58:00,
2013-08-17 10:59:00,70.7,69.5,30.11,North,9,3.5,3.5,96,0.00,OVC,,0.01,149.0,WeatherDisplay:10.37,2013-08-17 14:59:00,
2013-08-17 11:00:00,70.7,69.5,30.11,NE,47,3.5,3.5,96,0.00,OVC,,0.01,149.0,WeatherDisplay:10.37,2013-08-17 15:00:00,
2013-08-17 11:01:00,70.7,69.5,30.11,ENE,59,4.6,4.6,96,0.00,OVC,,0.01,127.0,WeatherDisplay:10.37,2013-08-17 15:01:00,
2013-08-17 11:04:00,70.7,69.5,30.11,ENE,57,4.6,4.6,96,0.00,OVC,,0.01,123.0,WeatherDisplay:10.37,2013-08-17 15:04:00,
2013-08-17 11:05:00,70.7,69.5,30.11,East,84,3.5,3.5,96,0.00,OVC,,0.01,120.0,WeatherDisplay:10.37,2013-08-17 15:05:00,
2013-08-17 11:07:00,70.8,69.6,30.11,East,84,1.2,0.0,96,0.00,OVC,,0.01,142.0,WeatherDisplay:10.37,2013-08-17 15:07:00,
2013-08-17 11:09:00,70.9,69.7,30.11,NNE,24,4.6,4.6,96,0.00,OVC,,0.01,139.0,WeatherDisplay:10.37,2013-08-17 15:09:00,
2013-08-17 11:10:00,70.9,69.7,30.11,NE,34,3.5,3.5,96,0.00,OVC,,0.01,135.0,WeatherDisplay:10.37,2013-08-17 15:10:00,
2013-08-17 11:11:00,71.0,69.8,30.11,NNE,29,3.5,3.5,96,0.00,OVC,,0.01,134.0,WeatherDisplay:10.37,2013-08-17 15:11:00,
2013-08-17 11:12:00,71.0,69.8,30.11,NNE,29,2.3,2.3,96,0.00,OVC,,0.01,134.0,WeatherDisplay:10.37,2013-08-17 15:12:00,
2013-08-17 11:14:00,71.0,69.8,30.11,NNE,28,3.5,3.5,96,0.00,OVC,,0.01,137.0,WeatherDisplay:10.37,2013-08-17 15:14:00,
2013-08-17 11:15:00,71.1,69.9,30.11,NNE,17,5.8,5.8,96,0.00,OVC,,0.01,137.0,WeatherDisplay:10.37,2013-08-17 15:15:00,
2013-08-17 11:16:00,71.1,69.9,30.11,NNE,13,4.6,4.6,96,0.00,OVC,,0.01,120.0,WeatherDisplay:10.37,2013-08-17 15:16:00,
2013-08-17 11:17:00,71.1,69.9,30.11,NE,45,3.0,3.0,96,0.00,OVC,,0.01,120.0,WeatherDisplay:10.37,2013-08-17 15:17:00,
2013-08-17 11:20:00,71.0,69.8,30.11,NE,42,4.6,4.6,96,0.00,OVC,,0.01,121.0,WeatherDisplay:10.37,2013-08-17 15:20:00,
2013-08-17 11:21:00,71.0,69.8,30.11,NE,53,5.0,5.0,96,0.00,OVC,,0.01,130.0,WeatherDisplay:10.37,2013-08-17 15:21:00,
2013-08-17 11:22:00,71.0,69.8,30.11,NNE,28,5.8,5.8,96,0.00,OVC,,0.01,137.0,WeatherDisplay:10.37,2013-08-17 15:22:00,
2013-08-17 11:25:00,71.1,69.9,30.11,NNE,28,3.5,3.5,96,0.00,OVC,,0.01,141.0,WeatherDisplay:10.37,2013-08-17 15:25:00,
2013-08-17 11:26:00,71.1,69.9,30.11,NNE,26,3.5,3.5,96,0.00,OVC,,0.01,134.0,WeatherDisplay:10.37,2013-08-17 15:26:00,
2013-08-17 11:27:00,71.2,70.0,30.11,NNE,24,3.5,3.5,96,0.00,OVC,,0.01,130.0,WeatherDisplay:10.37,2013-08-17 15:27:00,
2013-08-17 11:30:00,71.2,70.0,30.11,SSE,159,2.3,2.3,96,0.00,OVC,,0.01,120.0,WeatherDisplay:10.37,2013-08-17 15:30:00,
2013-08-17 11:31:00,71.2,70.0,30.11,NNE,13,3.0,3.0,96,0.00,-RA,,0.01,121.0,WeatherDisplay:10.37,2013-08-17 15:31:00,
2013-08-17 11:32:00,71.2,70.0,30.11,NE,37,3.5,3.5,96,0.00,-RA,,0.01,113.0,WeatherDisplay:10.37,2013-08-17 15:32:00,
2013-08-17 11:35:00,71.3,70.1,30.12,North,5,3.0,3.0,96,0.00,-RA,,0.01,105.0,WeatherDisplay:10.37,2013-08-17 15:35:00,
2013-08-17 11:36:00,71.3,70.1,30.11,NNE,13,3.5,3.5,96,0.00,-RA,,0.01,105.0,WeatherDisplay:10.37,2013-08-17 15:36:00,
2013-08-17 11:37:00,71.4,70.2,30.12,NNE,13,2.3,0.0,96,0.00,-RA,,0.01,98.0,WeatherDisplay:10.37,2013-08-17 15:37:00,
2013-08-17 11:40:00,71.4,70.2,30.12,NNE,27,1.2,1.2,96,0.00,-RA,,0.01,114.0,WeatherDisplay:10.37,2013-08-17 15:40:00,
2013-08-17 11:42:00,71.5,70.3,30.12,NNE,27,1.2,0.0,96,0.00,-RA,,0.01,114.0,WeatherDisplay:10.37,2013-08-17 15:42:00,
2013-08-17 11:43:00,71.6,70.4,30.12,NE,47,2.3,2.3,96,0.00,-RA,,0.01,116.0,WeatherDisplay:10.37,2013-08-17 15:43:00,
2013-08-17 11:45:00,71.5,70.3,30.12,ENE,62,1.2,1.2,96,0.00,-RA,,0.01,105.0,WeatherDisplay:10.37,2013-08-17 15:45:00,
2013-08-17 11:46:00,71.5,70.3,30.12,ENE,61,1.2,1.2,96,0.00,-RA,,0.01,105.0,WeatherDisplay:10.37,2013-08-17 15:46:00,
2013-08-17 11:47:00,71.5,70.3,30.12,ENE,61,2.3,2.3,96,0.00,-RA,,0.01,100.0,WeatherDisplay:10.37,2013-08-17 15:47:00,
2013-08-17 11:48:00,71.5,70.3,30.12,ENE,63,2.3,2.3,96,0.00,-RA,,0.01,90.0,WeatherDisplay:10.37,2013-08-17 15:48:00,
2013-08-17 11:51:00,71.5,70.3,30.12,ENE,63,1.2,1.2,96,0.00,-RA,,0.01,86.0,WeatherDisplay:10.37,2013-08-17 15:51:00,
2013-08-17 11:52:00,71.5,70.3,30.12,ENE,63,1.2,1.2,96,0.00,-RA,,0.01,90.0,WeatherDisplay:10.37,2013-08-17 15:52:00,
2013-08-17 11:53:00,71.5,70.3,30.12,ENE,63,1.2,1.2,96,0.00,-RA,,0.01,95.0,WeatherDisplay:10.37,2013-08-17 15:53:00,
2013-08-17 11:56:00,71.5,70.3,30.12,ENE,63,0.0,0.0,96,0.00,-RA,,0.01,109.0,WeatherDisplay:10.37,2013-08-17 15:56:00,
2013-08-17 11:57:00,71.6,70.4,30.12,ENE,63,1.2,1.2,96,0.00,-RA,,0.01,111.0,WeatherDisplay:10.37,2013-08-17 15:57:00,
2013-08-17 11:58:00,71.6,70.4,30.12,ENE,63,1.2,1.2,96,0.00,-RA,,0.01,114.0,WeatherDisplay:10.37,2013-08-17 15:58:00,
2013-08-17 12:01:00,71.6,70.4,30.12,ENE,63,1.2,1.2,96,0.00,-RA,,0.01,113.0,WeatherDisplay:10.37,2013-08-17 16:01:00,
2013-08-17 12:02:00,71.6,70.4,30.12,ENE,63,1.2,1.2,96,0.00,-RA,,0.01,113.0,WeatherDisplay:10.37,2013-08-17 16:02:00,
2013-08-17 12:03:00,71.7,70.5,30.12,ENE,63,2.3,2.3,96,0.00,-RA,,0.01,128.0,WeatherDisplay:10.37,2013-08-17 16:03:00,
2013-08-17 12:04:00,71.7,70.5,30.12,ENE,63,1.2,1.2,96,0.00,-RA,,0.01,144.0,WeatherDisplay:10.37,2013-08-17 16:04:00,
2013-08-17 12:06:00,71.7,70.5,30.12,ENE,63,3.5,3.5,96,0.00,-RA,,0.01,163.0,WeatherDisplay:10.37,2013-08-17 16:06:00,
2013-08-17 12:07:00,71.8,70.6,30.12,ENE,63,3.5,3.5,96,0.00,-RA,,0.01,171.0,WeatherDisplay:10.37,2013-08-17 16:07:00,
2013-08-17 12:08:00,71.9,70.7,30.12,ENE,63,2.0,2.0,96,0.00,-RA,,0.01,185.0,WeatherDisplay:10.37,2013-08-17 16:08:00,
2013-08-17 12:09:00,71.9,70.7,30.12,ENE,63,3.5,3.5,96,0.00,-RA,,0.01,200.0,WeatherDisplay:10.37,2013-08-17 16:09:00,
2013-08-17 12:11:00,71.9,70.7,30.12,ENE,63,2.3,2.3,96,0.00,-RA,,0.01,250.0,WeatherDisplay:10.37,2013-08-17 16:11:00,
2013-08-17 12:12:00,72.0,70.8,30.12,ENE,63,2.3,2.3,96,0.00,-RA,,0.01,264.0,WeatherDisplay:10.37,2013-08-17 16:12:00,
2013-08-17 12:13:00,72.2,71.0,30.12,ENE,69,2.3,2.8,96,0.00,-RA,,0.01,269.0,WeatherDisplay:10.37,2013-08-17 16:13:00,
2013-08-17 12:14:00,72.2,71.0,30.12,ENE,69,3.5,3.5,96,0.00,-RA,,0.01,258.0,WeatherDisplay:10.37,2013-08-17 16:14:00,
2013-08-17 12:17:00,72.3,71.1,30.12,ENE,67,1.2,1.2,96,0.00,-RA,,0.01,188.0,WeatherDisplay:10.37,2013-08-17 16:17:00,
2013-08-17 12:18:00,72.3,71.1,30.12,NNE,23,2.3,2.3,96,0.00,-RA,,0.01,190.0,WeatherDisplay:10.37,2013-08-17 16:18:00,
2013-08-17 12:19:00,72.3,71.1,30.12,NNE,23,2.3,2.3,96,0.00,-RA,,0.01,216.0,WeatherDisplay:10.37,2013-08-17 16:19:00,
2013-08-17 12:22:00,72.3,70.8,30.12,ENE,63,1.2,1.2,95,0.00,-RA,,0.01,225.0,WeatherDisplay:10.37,2013-08-17 16:22:00,
2013-08-17 12:23:00,72.4,70.9,30.12,ENE,63,0.0,0.0,95,0.00,-RA,,0.01,204.0,WeatherDisplay:10.37,2013-08-17 16:23:00,
2013-08-17 12:24:00,72.5,71.3,30.12,NNW,346,1.2,0.0,96,0.00,-RA,,0.01,185.0,WeatherDisplay:10.37,2013-08-17 16:24:00,
2013-08-17 12:27:00,72.8,71.3,30.12,ENE,59,1.2,1.2,95,0.00,-RA,,0.01,158.0,WeatherDisplay:10.37,2013-08-17 16:27:00,
2013-08-17 12:28:00,72.9,71.7,30.11,ENE,59,1.2,0.0,96,0.00,-RA,,0.01,158.0,WeatherDisplay:10.37,2013-08-17 16:28:00,
2013-08-17 12:29:00,72.9,71.7,30.11,ENE,59,2.3,2.3,96,0.00,-RA,,0.01,165.0,WeatherDisplay:10.37,2013-08-17 16:29:00,
2013-08-17 12:33:00,72.9,71.4,30.11,ENE,73,3.5,3.5,95,0.00,-RA,,0.01,206.0,WeatherDisplay:10.37,2013-08-17 16:33:00,
2013-08-17 12:34:00,72.9,71.4,30.11,ENE,72,3.5,3.5,95,0.00,-RA,,0.01,206.0,WeatherDisplay:10.37,2013-08-17 16:34:00,
2013-08-17 12:35:00,72.8,71.3,30.11,ENE,72,2.3,2.3,95,0.00,-RA,,0.01,199.0,WeatherDisplay:10.37,2013-08-17 16:35:00,
2013-08-17 12:38:00,73.0,71.5,30.11,ENE,72,1.2,1.2,95,0.00,-RA,,0.01,142.0,WeatherDisplay:10.37,2013-08-17 16:38:00,
2013-08-17 12:39:00,73.0,71.5,30.11,ENE,72,1.2,1.2,95,0.00,-RA,,0.01,139.0,WeatherDisplay:10.37,2013-08-17 16:39:00,
2013-08-17 12:40:00,73.0,71.5,30.11,ENE,72,2.0,2.0,95,0.00,-RA,,0.01,135.0,WeatherDisplay:10.37,2013-08-17 16:40:00,
2013-08-17 12:44:00,72.9,71.1,30.11,NNE,14,2.3,2.3,94,0.00,-RA,,0.01,137.0,WeatherDisplay:10.37,2013-08-17 16:44:00,
2013-08-17 12:45:00,73.0,71.5,30.11,NNE,16,1.2,1.2,95,0.00,-RA,,0.01,144.0,WeatherDisplay:10.37,2013-08-17 16:45:00,
2013-08-17 12:49:00,73.1,71.6,30.11,NE,48,3.5,3.5,95,0.00,-RA,,0.01,179.0,WeatherDisplay:10.37,2013-08-17 16:49:00,
2013-08-17 12:50:00,73.1,71.6,30.11,NE,48,3.5,3.5,95,0.00,-RA,,0.01,186.0,WeatherDisplay:10.37,2013-08-17 16:50:00,
2013-08-17 12:54:00,73.1,71.3,30.11,NE,48,1.2,1.2,94,0.00,-RA,,0.01,186.0,WeatherDisplay:10.37,2013-08-17 16:54:00,
2013-08-17 12:55:00,73.1,71.6,30.11,North,351,2.3,2.3,95,0.00,-RA,,0.01,178.0,WeatherDisplay:10.37,2013-08-17 16:55:00,
2013-08-17 12:56:00,73.2,71.7,30.11,North,351,3.5,3.5,95,0.00,-RA,,0.01,167.0,WeatherDisplay:10.37,2013-08-17 16:56:00,
2013-08-17 12:59:00,73.3,71.5,30.11,North,351,1.0,1.0,94,0.00,-RA,,0.01,148.0,WeatherDisplay:10.37,2013-08-17 16:59:00,
2013-08-17 13:00:00,73.3,71.5,30.11,North,351,1.2,1.2,94,0.00,-RA,,0.01,144.0,WeatherDisplay:10.37,2013-08-17 17:00:00,
2013-08-17 13:01:00,73.3,71.5,30.11,North,351,1.2,1.2,94,0.00,-RA,,0.01,144.0,WeatherDisplay:10.37,2013-08-17 17:01:00,
2013-08-17 13:04:00,73.4,71.6,30.11,North,351,2.3,2.3,94,0.00,-RA,,0.01,146.0,WeatherDisplay:10.37,2013-08-17 17:04:00,
2013-08-17 13:05:00,73.4,71.6,30.11,North,351,1.2,1.2,94,0.00,-RA,,0.01,146.0,WeatherDisplay:10.37,2013-08-17 17:05:00,
2013-08-17 13:06:00,73.4,71.6,30.11,North,350,2.3,2.3,94,0.00,-RA,,0.01,155.0,WeatherDisplay:10.37,2013-08-17 17:06:00,
2013-08-17 13:09:00,73.4,71.6,30.11,NW,320,3.5,3.5,94,0.00,-RA,,0.01,185.0,WeatherDisplay:10.37,2013-08-17 17:09:00,
2013-08-17 13:10:00,73.4,71.6,30.11,NW,320,2.3,2.3,94,0.00,-RA,,0.01,185.0,WeatherDisplay:10.37,2013-08-17 17:10:00,
2013-08-17 13:11:00,73.4,71.6,30.11,NW,320,2.3,2.3,94,0.00,-RA,,0.01,188.0,WeatherDisplay:10.37,2013-08-17 17:11:00,
2013-08-17 13:14:00,73.5,71.7,30.10,NNE,15,3.5,3.5,94,0.00,-RA,,0.01,185.0,WeatherDisplay:10.37,2013-08-17 17:14:00,
2013-08-17 13:15:00,73.5,71.7,30.10,NNE,15,3.5,3.5,94,0.00,-RA,,0.01,185.0,WeatherDisplay:10.37,2013-08-17 17:15:00,
2013-08-17 13:16:00,73.5,71.7,30.10,NNE,15,2.3,2.3,94,0.00,-RA,,0.01,178.0,WeatherDisplay:10.37,2013-08-17 17:16:00,
2013-08-17 13:20:00,73.5,71.7,30.10,NNW,346,3.5,3.5,94,0.00,-RA,,0.01,200.0,WeatherDisplay:10.37,2013-08-17 17:20:00,
2013-08-17 13:21:00,73.6,71.8,30.10,North,9,3.0,3.0,94,0.00,-RA,,0.01,207.0,WeatherDisplay:10.37,2013-08-17 17:21:00,
2013-08-17 13:25:00,73.8,72.0,30.10,NNE,22,1.2,0.0,94,0.00,-RA,,0.01,308.0,WeatherDisplay:10.37,2013-08-17 17:25:00,
2013-08-17 13:26:00,73.9,72.1,30.10,NNW,332,3.0,3.0,94,0.00,-RA,,0.01,265.0,WeatherDisplay:10.37,2013-08-17 17:26:00,
2013-08-17 13:27:00,73.9,72.1,30.10,NNW,342,3.5,3.5,94,0.00,-RA,,0.01,255.0,WeatherDisplay:10.37,2013-08-17 17:27:00,
2013-08-17 13:30:00,74.0,71.8,30.10,NW,309,3.5,3.5,93,0.00,OVC,,0.01,285.0,WeatherDisplay:10.37,2013-08-17 17:30:00,
2013-08-17 13:31:00,74.0,71.8,30.10,NW,309,3.5,3.5,93,0.00,OVC,,0.01,276.0,WeatherDisplay:10.37,2013-08-17 17:31:00,
2013-08-17 13:32:00,74.0,71.8,30.10,NW,318,3.5,3.5,93,0.00,OVC,,0.01,251.0,WeatherDisplay:10.37,2013-08-17 17:32:00,
2013-08-17 13:36:00,74.2,72.0,30.10,NNE,13,3.5,3.5,93,0.00,OVC,,0.01,237.0,WeatherDisplay:10.37,2013-08-17 17:36:00,
2013-08-17 13:37:00,74.3,72.1,30.10,North,350,3.5,3.5,93,0.00,OVC,,0.01,262.0,WeatherDisplay:10.37,2013-08-17 17:37:00,
2013-08-17 13:38:00,74.3,72.1,30.10,NNW,341,3.5,3.5,93,0.00,OVC,,0.01,267.0,WeatherDisplay:10.37,2013-08-17 17:38:00,
2013-08-17 13:41:00,74.4,72.2,30.10,NNE,20,2.3,2.3,93,0.00,OVC,,0.01,290.0,WeatherDisplay:10.37,2013-08-17 17:41:00,
2013-08-17 13:42:00,74.5,72.3,30.10,NE,35,3.5,3.5,93,0.00,OVC,,0.01,294.0,WeatherDisplay:10.37,2013-08-17 17:42:00,
2013-08-17 13:43:00,74.7,72.5,30.10,North,360,2.3,2.3,93,0.00,OVC,,0.01,278.0,WeatherDisplay:10.37,2013-08-17 17:43:00,
2013-08-17 13:46:00,74.7,72.2,30.10,NW,320,4.0,4.0,92,0.00,OVC,,0.01,267.0,WeatherDisplay:10.37,2013-08-17 17:46:00,
2013-08-17 13:47:00,74.7,72.2,30.10,NW,321,4.0,4.0,92,0.00,OVC,,0.01,264.0,WeatherDisplay:10.37,2013-08-17 17:47:00,
2013-08-17 13:48:00,74.7,72.2,30.10,NNW,340,3.5,3.5,92,0.00,OVC,,0.01,239.0,WeatherDisplay:10.37,2013-08-17 17:48:00,
2013-08-17 13:51:00,74.5,72.0,30.09,NNW,339,2.3,2.3,92,0.00,OVC,,0.01,218.0,WeatherDisplay:10.37,2013-08-17 17:51:00,
2013-08-17 13:52:00,74.6,72.1,30.09,NNW,337,3.5,3.5,92,0.00,OVC,,0.01,218.0,WeatherDisplay:10.37,2013-08-17 17:52:00,
2013-08-17 13:54:00,74.6,72.4,30.09,NNW,337,2.3,2.3,93,0.00,OVC,,0.01,260.0,WeatherDisplay:10.37,2013-08-17 17:54:00,
2013-08-17 13:56:00,74.7,72.2,30.09,NNW,331,2.3,2.3,92,0.00,OVC,,0.01,343.0,WeatherDisplay:10.37,2013-08-17 17:56:00,
2013-08-17 13:57:00,74.8,72.6,30.09,NNW,331,1.0,0.0,93,0.00,OVC,,0.01,334.0,WeatherDisplay:10.37,2013-08-17 17:57:00,
2013-08-17 13:58:00,75.0,72.8,30.09,NNW,331,1.2,1.2,93,0.00,OVC,,0.01,315.0,WeatherDisplay:10.37,2013-08-17 17:58:00,
2013-08-17 13:59:00,75.2,73.0,30.09,NNW,331,2.0,2.0,93,0.00,OVC,,0.01,285.0,WeatherDisplay:10.37,2013-08-17 17:59:00,
2013-08-17 14:01:00,75.3,72.8,30.09,NNE,17,2.3,2.3,92,0.00,OVC,,0.01,234.0,WeatherDisplay:10.37,2013-08-17 18:01:00,
2013-08-17 14:02:00,75.3,72.5,30.09,NNE,17,2.3,2.3,91,0.00,OVC,,0.01,223.0,WeatherDisplay:10.37,2013-08-17 18:02:00,
2013-08-17 14:03:00,75.3,72.5,30.09,NNE,17,1.2,0.0,91,0.00,OVC,,0.01,223.0,WeatherDisplay:10.37,2013-08-17 18:03:00,
2013-08-17 14:04:00,75.3,72.5,30.09,NNE,17,1.2,1.2,91,0.00,OVC,,0.01,223.0,WeatherDisplay:10.37,2013-08-17 18:04:00,
2013-08-17 14:06:00,75.2,72.4,30.09,NNE,21,2.3,2.3,91,0.00,OVC,,0.01,183.0,WeatherDisplay:10.37,2013-08-17 18:06:00,
2013-08-17 14:08:00,75.2,72.4,30.09,NNE,13,2.3,2.3,91,0.00,OVC,,0.01,174.0,WeatherDisplay:10.37,2013-08-17 18:08:00,
2013-08-17 14:09:00,75.2,72.4,30.09,NNW,333,3.5,3.5,91,0.00,OVC,,0.01,155.0,WeatherDisplay:10.37,2013-08-17 18:09:00,
2013-08-17 14:11:00,75.2,72.4,30.09,North,5,3.5,3.5,91,0.00,OVC,,0.01,120.0,WeatherDisplay:10.37,2013-08-17 18:11:00,
2013-08-17 14:13:00,75.1,72.3,30.09,North,10,3.5,3.5,91,0.00,OVC,,0.01,113.0,WeatherDisplay:10.37,2013-08-17 18:13:00,
2013-08-17 14:14:00,75.1,72.6,30.09,NNW,348,3.5,3.5,92,0.00,OVC,,0.01,109.0,WeatherDisplay:10.37,2013-08-17 18:14:00,
2013-08-17 14:15:00,75.1,72.6,30.09,NNW,336,3.5,3.5,92,0.00,OVC,,0.01,105.0,WeatherDisplay:10.37,2013-08-17 18:15:00,
2013-08-17 14:17:00,74.9,72.1,30.09,NNW,327,3.5,3.5,91,0.00,OVC,,0.01,113.0,WeatherDisplay:10.37,2013-08-17 18:17:00,
2013-08-17 14:18:00,74.9,72.4,30.09,NW,324,3.5,3.5,92,0.00,OVC,,0.01,120.0,WeatherDisplay:10.37,2013-08-17 18:18:00,
2013-08-17 14:19:00,74.8,72.3,30.09,NW,323,3.5,3.5,92,0.00,OVC,,0.01,128.0,WeatherDisplay:10.37,2013-08-17 18:19:00,
2013-08-17 14:20:00,74.7,72.2,30.09,NW,323,3.5,3.5,92,0.00,OVC,,0.01,128.0,WeatherDisplay:10.37,2013-08-17 18:20:00,
2013-08-17 14:22:00,74.6,72.1,30.09,NW,323,2.3,2.3,92,0.00,OVC,,0.01,139.0,WeatherDisplay:10.37,2013-08-17 18:22:00,
2013-08-17 14:23:00,74.6,72.1,30.09,NW,323,2.3,0.0,92,0.00,OVC,,0.01,149.0,WeatherDisplay:10.37,2013-08-17 18:23:00,
2013-08-17 14:24:00,74.6,72.1,30.09,NW,324,1.2,1.2,92,0.00,OVC,,0.01,162.0,WeatherDisplay:10.37,2013-08-17 18:24:00,
2013-08-17 14:25:00,74.6,72.1,30.09,NW,323,1.2,1.2,92,0.00,OVC,,0.01,162.0,WeatherDisplay:10.37,2013-08-17 18:25:00,
2013-08-17 14:27:00,74.8,72.6,30.09,NW,323,1.2,1.2,93,0.00,OVC,,0.01,221.0,WeatherDisplay:10.37,2013-08-17 18:27:00,
2013-08-17 14:29:00,74.9,72.4,30.09,NNE,12,3.5,3.5,92,0.00,OVC,,0.01,204.0,WeatherDisplay:10.37,2013-08-17 18:29:00,
2013-08-17 14:30:00,75.0,72.5,30.09,NNE,12,3.5,3.5,92,0.00,OVC,,0.01,204.0,WeatherDisplay:10.37,2013-08-17 18:30:00,
2013-08-17 14:32:00,75.2,73.0,30.09,North,5,1.2,1.2,93,0.00,BKN,,0.01,251.0,WeatherDisplay:10.37,2013-08-17 18:32:00,
2013-08-17 14:34:00,75.3,72.8,30.09,WNW,295,3.5,3.5,92,0.00,BKN,,0.01,251.0,WeatherDisplay:10.37,2013-08-17 18:34:00,
2013-08-17 14:35:00,75.3,72.5,30.09,WNW,295,2.3,2.3,91,0.00,BKN,,0.01,230.0,WeatherDisplay:10.37,2013-08-17 18:35:00,
2013-08-17 14:38:00,75.3,72.5,30.09,WNW,295,0.0,0.0,91,0.00,BKN,,0.01,218.0,WeatherDisplay:10.37,2013-08-17 18:38:00,
2013-08-17 14:39:00,75.5,73.0,30.09,WNW,294,2.0,2.0,92,0.00,BKN,,0.01,243.0,WeatherDisplay:10.37,2013-08-17 18:39:00,
2013-08-17 14:40:00,75.6,73.1,30.09,WNW,294,2.3,2.3,92,0.00,BKN,,0.01,248.0,WeatherDisplay:10.37,2013-08-17 18:40:00,
2013-08-17 14:43:00,75.5,72.7,30.09,NW,320,3.5,3.5,91,0.00,BKN,,0.01,169.0,WeatherDisplay:10.37,2013-08-17 18:43:00,
2013-08-17 14:44:00,75.5,72.7,30.09,NNW,327,3.5,3.5,91,0.00,BKN,,0.01,171.0,WeatherDisplay:10.37,2013-08-17 18:44:00,
2013-08-17 14:45:00,75.5,72.7,30.09,NNE,20,2.3,2.3,91,0.00,BKN,,0.01,179.0,WeatherDisplay:10.37,2013-08-17 18:45:00,
2013-08-17 14:46:00,75.5,72.7,30.09,NNE,27,2.3,2.3,91,0.00,OVC,,0.01,190.0,WeatherDisplay:10.37,2013-08-17 18:46:00,
2013-08-17 14:48:00,75.5,72.7,30.09,North,9,2.3,2.3,91,0.00,OVC,,0.01,169.0,WeatherDisplay:10.37,2013-08-17 18:48:00,
2013-08-17 14:50:00,75.6,73.1,30.09,North,11,3.0,3.0,92,0.00,OVC,,0.01,169.0,WeatherDisplay:10.37,2013-08-17 18:50:00,
2013-08-17 14:51:00,75.6,72.8,30.09,North,5,3.5,3.5,91,0.00,OVC,,0.01,171.0,WeatherDisplay:10.37,2013-08-17 18:51:00,
2013-08-17 14:54:00,75.5,72.7,30.09,NNW,347,3.5,3.5,91,0.00,OVC,,0.01,193.0,WeatherDisplay:10.37,2013-08-17 18:54:00,
2013-08-17 14:55:00,75.5,72.7,30.09,NNW,342,2.3,2.3,91,0.00,OVC,,0.01,186.0,WeatherDisplay:10.37,2013-08-17 18:55:00,
2013-08-17 14:56:00,75.5,72.7,30.09,NNW,343,2.3,2.3,91,0.00,OVC,,0.01,186.0,WeatherDisplay:10.37,2013-08-17 18:56:00,
2013-08-17 14:59:00,75.4,72.6,30.09,NW,322,3.5,3.5,91,0.00,OVC,,0.01,148.0,WeatherDisplay:10.37,2013-08-17 18:59:00,
2013-08-17 15:00:00,75.4,72.6,30.09,NW,322,1.2,1.2,91,0.00,OVC,,0.01,134.0,WeatherDisplay:10.37,2013-08-17 19:00:00,
2013-08-17 15:01:00,75.4,72.6,30.09,NW,322,1.2,1.2,91,0.00,OVC,,0.01,134.0,WeatherDisplay:10.37,2013-08-17 19:01:00,
2013-08-17 15:04:00,75.5,73.0,30.09,NW,321,1.2,1.2,92,0.00,OVC,,0.01,93.0,WeatherDisplay:10.37,2013-08-17 19:04:00,
2013-08-17 15:06:00,75.4,72.6,30.09,NW,321,1.2,0.0,91,0.00,OVC,,0.01,95.0,WeatherDisplay:10.37,2013-08-17 19:06:00,
2013-08-17 15:09:00,75.3,72.8,30.09,NNE,23,0.0,0.0,92,0.00,OVC,,0.01,107.0,WeatherDisplay:10.37,2013-08-17 19:09:00,
2013-08-17 15:11:00,75.3,72.8,30.09,North,5,3.0,3.0,92,0.00,OVC,,0.01,127.0,WeatherDisplay:10.37,2013-08-17 19:11:00,
2013-08-17 15:12:00,75.2,72.7,30.09,North,5,3.5,3.5,92,0.00,OVC,,0.01,141.0,WeatherDisplay:10.37,2013-08-17 19:12:00,
2013-08-17 15:14:00,75.3,72.8,30.09,North,5,2.3,0.0,92,0.00,OVC,,0.01,188.0,WeatherDisplay:10.37,2013-08-17 19:14:00,
2013-08-17 15:16:00,75.4,72.9,30.08,NW,313,2.3,2.3,92,0.00,OVC,,0.01,230.0,WeatherDisplay:10.37,2013-08-17 19:16:00,
2013-08-17 15:17:00,75.4,72.9,30.08,NW,313,3.5,3.5,92,0.00,OVC,,0.01,269.0,WeatherDisplay:10.37,2013-08-17 19:17:00,
2013-08-17 15:19:00,75.5,73.0,30.08,NNW,338,4.0,4.0,92,0.00,OVC,,0.01,364.0,WeatherDisplay:10.37,2013-08-17 19:19:00,
2013-08-17 15:21:00,75.6,73.1,30.08,NW,319,3.5,3.5,92,0.00,OVC,,0.01,408.0,WeatherDisplay:10.37,2013-08-17 19:21:00,
2013-08-17 15:22:00,75.7,72.9,30.08,NW,320,3.5,3.5,91,0.00,OVC,,0.01,401.0,WeatherDisplay:10.37,2013-08-17 19:22:00,
2013-08-17 15:24:00,75.9,73.1,30.08,West,276,3.5,3.5,91,0.00,OVC,,0.01,362.0,WeatherDisplay:10.37,2013-08-17 19:24:00,
2013-08-17 15:26:00,75.9,73.1,30.08,NNW,346,3.5,3.5,91,0.00,OVC,,0.01,359.0,WeatherDisplay:10.37,2013-08-17 19:26:00,
2013-08-17 15:27:00,76.0,73.2,30.08,NNW,346,3.5,3.5,91,0.00,OVC,,0.01,364.0,WeatherDisplay:10.37,2013-08-17 19:27:00,
2013-08-17 15:28:00,76.0,73.2,30.08,NW,315,2.3,2.3,91,0.00,OVC,,0.01,360.0,WeatherDisplay:10.37,2013-08-17 19:28:00,
2013-08-17 15:29:00,76.2,73.4,30.08,NNE,20,3.5,3.5,91,0.00,OVC,,0.01,362.0,WeatherDisplay:10.37,2013-08-17 19:29:00,
2013-08-17 15:32:00,76.3,73.1,30.08,NNE,18,3.5,3.5,90,0.00,-RA,,0.01,362.0,WeatherDisplay:10.37,2013-08-17 19:32:00,
2013-08-17 15:33:00,76.4,73.6,30.08,NNE,22,3.5,3.5,91,0.00,-RA,,0.01,403.0,WeatherDisplay:10.37,2013-08-17 19:33:00,
2013-08-17 15:35:00,76.6,73.8,30.08,NNE,26,3.5,3.5,91,0.00,-RA,,0.01,490.0,WeatherDisplay:10.37,2013-08-17 19:35:00,
2013-08-17 15:37:00,76.9,73.7,30.08,North,351,3.5,3.5,90,0.00,-RA,,0.01,403.0,WeatherDisplay:10.37,2013-08-17 19:37:00,
2013-08-17 15:38:00,77.0,73.5,30.08,North,350,2.3,2.3,89,0.00,-RA,,0.01,457.0,WeatherDisplay:10.37,2013-08-17 19:38:00,
2013-08-17 15:40:00,77.2,74.0,30.08,North,350,2.3,2.3,90,0.00,-RA,,0.01,636.0,WeatherDisplay:10.37,2013-08-17 19:40:00,
2013-08-17 15:42:00,77.5,74.0,30.08,WNW,284,5.8,5.8,89,0.00,-RA,,0.01,536.0,WeatherDisplay:10.37,2013-08-17 19:42:00,
2013-08-17 15:43:00,77.4,73.9,30.08,NW,317,3.5,3.5,89,0.00,-RA,,0.01,385.0,WeatherDisplay:10.37,2013-08-17 19:43:00,
2013-08-17 15:45:00,77.3,73.8,30.08,NW,314,3.5,3.5,89,0.00,-RA,,0.01,334.0,WeatherDisplay:10.37,2013-08-17 19:45:00,
2013-08-17 15:47:00,77.4,73.9,30.08,NW,315,2.3,2.3,89,0.00,-RA,,0.01,332.0,WeatherDisplay:10.37,2013-08-17 19:47:00,
2013-08-17 15:48:00,77.4,73.9,30.08,NNW,331,2.3,2.3,89,0.00,-RA,,0.01,339.0,WeatherDisplay:10.37,2013-08-17 19:48:00,
2013-08-17 15:50:00,77.5,74.0,30.08,WNW,288,4.0,4.0,89,0.00,-RA,,0.01,329.0,WeatherDisplay:10.37,2013-08-17 19:50:00,
2013-08-17 15:52:00,77.4,73.6,30.08,WNW,300,3.5,3.5,88,0.00,-RA,,0.01,304.0,WeatherDisplay:10.37,2013-08-17 19:52:00,
2013-08-17 15:53:00,77.4,74.2,30.08,WNW,302,2.3,2.3,90,0.00,-RA,,0.01,294.0,WeatherDisplay:10.37,2013-08-17 19:53:00,
2013-08-17 15:54:00,77.4,73.9,30.08,WNW,283,2.3,2.3,89,0.00,-RA,,0.01,276.0,WeatherDisplay:10.37,2013-08-17 19:54:00,
2013-08-17 15:55:00,77.5,74.0,30.08,NNW,333,3.5,3.5,89,0.00,-RA,,0.01,272.0,WeatherDisplay:10.37,2013-08-17 19:55:00,
2013-08-17 15:58:00,77.2,73.7,30.08,NW,311,3.5,3.5,89,0.00,-RA,,0.01,301.0,WeatherDisplay:10.37,2013-08-17 19:58:00,
2013-08-17 15:59:00,77.1,73.6,30.08,NNW,337,5.0,5.0,89,0.00,-RA,,0.01,308.0,WeatherDisplay:10.37,2013-08-17 19:59:00,
2013-08-17 16:00:00,77.0,73.5,30.08,NNW,348,4.6,4.6,89,0.00,-RA,,0.01,334.0,WeatherDisplay:10.37,2013-08-17 20:00:00,
2013-08-17 16:03:00,77.0,73.5,30.08,West,274,4.0,4.0,89,0.00,OVC,,0.01,371.0,WeatherDisplay:10.37,2013-08-17 20:03:00,
2013-08-17 16:04:00,77.0,73.5,30.08,NW,315,3.5,3.5,89,0.00,OVC,,0.01,366.0,WeatherDisplay:10.37,2013-08-17 20:04:00,
2013-08-17 16:05:00,77.1,73.6,30.08,NW,317,3.5,3.5,89,0.00,OVC,,0.01,336.0,WeatherDisplay:10.37,2013-08-17 20:05:00,
2013-08-17 16:08:00,77.1,73.6,30.08,NW,320,3.5,3.5,89,0.00,OVC,,0.01,272.0,WeatherDisplay:10.37,2013-08-17 20:08:00,
2013-08-17 16:09:00,77.1,73.6,30.08,NW,307,2.0,2.0,89,0.00,OVC,,0.01,257.0,WeatherDisplay:10.37,2013-08-17 20:09:00,
2013-08-17 16:10:00,77.1,73.6,30.08,NW,307,3.5,3.5,89,0.00,OVC,,0.01,246.0,WeatherDisplay:10.37,2013-08-17 20:10:00,
2013-08-17 16:11:00,77.2,74.0,30.08,NW,307,0.0,0.0,90,0.00,OVC,,0.01,244.0,WeatherDisplay:10.37,2013-08-17 20:11:00,
2013-08-17 16:13:00,77.2,73.7,30.08,NW,308,5.8,5.8,89,0.00,OVC,,0.01,264.0,WeatherDisplay:10.37,2013-08-17 20:13:00,
2013-08-17 16:14:00,77.2,73.7,30.08,WSW,246,4.6,4.6,89,0.00,OVC,,0.01,283.0,WeatherDisplay:10.37,2013-08-17 20:14:00,
2013-08-17 16:15:00,77.2,73.7,30.08,West,281,4.6,4.6,89,0.00,OVC,,0.01,253.0,WeatherDisplay:10.37,2013-08-17 20:15:00,
2013-08-17 16:16:00,77.1,73.6,30.08,WNW,287,6.0,6.0,89,0.00,OVC,,0.01,185.0,WeatherDisplay:10.37,2013-08-17 20:16:00,
2013-08-17 16:19:00,77.1,73.9,30.08,West,281,0.0,0.0,90,0.00,OVC,,0.01,223.0,WeatherDisplay:10.37,2013-08-17 20:19:00,
2013-08-17 16:20:00,77.1,73.9,30.08,WNW,294,1.2,1.2,90,0.00,OVC,,0.01,241.0,WeatherDisplay:10.37,2013-08-17 20:20:00,
2013-08-17 16:21:00,77.1,73.6,30.08,West,281,2.3,2.3,89,0.00,OVC,,0.01,232.0,WeatherDisplay:10.37,2013-08-17 20:21:00,
2013-08-17 16:24:00,76.8,73.3,30.08,NNW,328,4.6,4.6,89,0.00,OVC,,0.01,195.0,WeatherDisplay:10.37,2013-08-17 20:24:00,
2013-08-17 16:25:00,76.7,73.2,30.08,NW,324,3.5,3.5,89,0.00,OVC,,0.01,151.0,WeatherDisplay:10.37,2013-08-17 20:25:00,
2013-08-17 16:26:00,76.7,73.5,30.08,West,265,2.3,2.3,90,0.00,OVC,,0.01,148.0,WeatherDisplay:10.37,2013-08-17 20:26:00,
2013-08-17 16:29:00,76.5,73.0,30.08,WSW,258,3.5,3.5,89,0.00,OVC,,0.01,158.0,WeatherDisplay:10.37,2013-08-17 20:29:00,
2013-08-17 16:30:00,76.4,73.2,30.08,WSW,258,3.5,3.5,90,0.00,OVC,,0.01,165.0,WeatherDisplay:10.37,2013-08-17 20:30:00,
2013-08-17 16:31:00,76.4,73.2,30.08,WSW,258,1.2,1.2,90,0.00,-RA,,0.01,178.0,WeatherDisplay:10.37,2013-08-17 20:31:00,
2013-08-17 16:32:00,76.4,73.2,30.08,WNW,289,4.0,4.0,90,0.00,-RA,,0.01,179.0,WeatherDisplay:10.37,2013-08-17 20:32:00,
2013-08-17 16:34:00,76.2,73.1,30.08,WNW,288,4.6,4.6,90,0.00,-RA,,0.01,162.0,WeatherDisplay:10.37,2013-08-17 20:34:00,
2013-08-17 16:35:00,76.2,73.1,30.08,West,268,7.0,7.0,90,0.00,-RA,,0.01,158.0,WeatherDisplay:10.37,2013-08-17 20:35:00,
2013-08-17 16:36:00,76.2,73.1,30.08,WNW,294,5.0,5.0,90,0.00,-RA,,0.01,158.0,WeatherDisplay:10.37,2013-08-17 20:36:00,
2013-08-17 16:37:00,76.1,73.0,30.08,West,264,5.8,5.8,90,0.00,-RA,,0.01,176.0,WeatherDisplay:10.37,2013-08-17 20:37:00,
2013-08-17 16:39:00,76.1,73.0,30.08,WNW,297,4.0,4.0,90,0.00,-RA,,0.01,128.0,WeatherDisplay:10.37,2013-08-17 20:39:00,
2013-08-17 16:40:00,76.1,73.0,30.08,NW,317,4.6,4.6,90,0.00,-RA,,0.01,128.0,WeatherDisplay:10.37,2013-08-17 20:40:00,
2013-08-17 16:41:00,76.1,73.0,30.08,West,264,3.5,3.5,90,0.00,-RA,,0.01,127.0,WeatherDisplay:10.37,2013-08-17 20:41:00,
2013-08-17 16:42:00,76.0,72.9,30.07,North,5,3.5,3.5,90,0.00,-RA,,0.01,137.0,WeatherDisplay:10.37,2013-08-17 20:42:00,
2013-08-17 16:44:00,76.0,72.9,30.07,NW,321,3.5,3.5,90,0.00,-RA,,0.01,179.0,WeatherDisplay:10.37,2013-08-17 20:44:00,
2013-08-17 16:45:00,76.0,72.9,30.07,NW,311,5.0,5.0,90,0.00,-RA,,0.01,179.0,WeatherDisplay:10.37,2013-08-17 20:45:00,
2013-08-17 16:46:00,76.0,72.9,30.07,NNW,340,4.6,4.6,90,0.00,-RA,,0.01,185.0,WeatherDisplay:10.37,2013-08-17 20:46:00,
2013-08-17 16:48:00,75.9,72.8,30.07,NW,312,4.6,4.6,90,0.00,-RA,,0.01,163.0,WeatherDisplay:10.37,2013-08-17 20:48:00,
2013-08-17 16:50:00,75.9,73.1,30.07,NNW,332,3.5,3.5,91,0.00,-RA,,0.01,190.0,WeatherDisplay:10.37,2013-08-17 20:50:00,
2013-08-17 16:51:00,75.9,73.1,30.07,NNW,332,2.3,2.3,91,0.00,-RA,,0.01,223.0,WeatherDisplay:10.37,2013-08-17 20:51:00,
2013-08-17 16:52:00,75.9,73.1,30.07,NNW,332,2.3,2.3,91,0.00,-RA,,0.01,274.0,WeatherDisplay:10.37,2013-08-17 20:52:00,
2013-08-17 16:53:00,76.0,73.2,30.07,NW,309,4.6,4.6,91,0.00,-RA,,0.01,299.0,WeatherDisplay:10.37,2013-08-17 20:53:00,
2013-08-17 16:55:00,76.1,73.3,30.07,NNW,327,3.5,3.5,91,0.00,-RA,,0.01,229.0,WeatherDisplay:10.37,2013-08-17 20:55:00,
2013-08-17 16:57:00,76.2,73.1,30.07,NW,321,3.5,3.5,90,0.00,-RA,,0.01,209.0,WeatherDisplay:10.37,2013-08-17 20:57:00,
2013-08-17 16:58:00,76.3,73.5,30.07,NW,319,3.5,3.5,91,0.00,-RA,,0.01,192.0,WeatherDisplay:10.37,2013-08-17 20:58:00,
2013-08-17 17:00:00,76.3,73.1,30.07,WSW,258,3.5,3.5,90,0.00,-RA,,0.01,181.0,WeatherDisplay:10.37,2013-08-17 21:00:00,
2013-08-17 17:01:00,76.2,73.1,30.07,West,279,3.5,3.5,90,0.00,SCT,,0.01,165.0,WeatherDisplay:10.37,2013-08-17 21:01:00,
2013-08-17 17:02:00,76.2,73.1,30.07,WSW,252,3.5,3.5,90,0.00,SCT,,0.01,195.0,WeatherDisplay:10.37,2013-08-17 21:02:00,
2013-08-17 17:03:00,76.2,73.1,30.07,West,270,2.3,2.3,90,0.00,SCT,,0.01,193.0,WeatherDisplay:10.37,2013-08-17 21:03:00,
2013-08-17 17:06:00,76.2,72.7,30.07,NW,316,5.8,5.8,89,0.00,SCT,,0.01,223.0,WeatherDisplay:10.37,2013-08-17 21:06:00,
2013-08-17 17:07:00,76.1,73.0,30.07,NW,306,3.5,3.5,90,0.00,SCT,,0.01,178.0,WeatherDisplay:10.37,2013-08-17 21:07:00,
2013-08-17 17:08:00,76.2,73.1,30.07,WNW,290,3.5,3.5,90,0.00,SCT,,0.01,162.0,WeatherDisplay:10.37,2013-08-17 21:08:00,
2013-08-17 17:11:00,76.2,73.1,30.08,NW,310,2.3,2.3,90,0.00,SCT,,0.01,204.0,WeatherDisplay:10.37,2013-08-17 21:11:00,
2013-08-17 17:12:00,76.3,73.1,30.08,NW,315,1.2,1.2,90,0.00,SCT,,0.01,202.0,WeatherDisplay:10.37,2013-08-17 21:12:00,
2013-08-17 17:13:00,76.3,73.1,30.08,NW,309,5.0,5.0,90,0.00,SCT,,0.01,179.0,WeatherDisplay:10.37,2013-08-17 21:13:00,
2013-08-17 17:16:00,76.2,73.1,30.08,West,271,5.8,5.8,90,0.00,SCT,,0.01,123.0,WeatherDisplay:10.37,2013-08-17 21:16:00,
2013-08-17 17:17:00,76.2,72.7,30.08,WNW,298,3.5,3.5,89,0.00,SCT,,0.01,120.0,WeatherDisplay:10.37,2013-08-17 21:17:00,
2013-08-17 17:18:00,76.2,73.1,30.08,NNW,338,3.5,3.5,90,0.00,SCT,,0.01,125.0,WeatherDisplay:10.37,2013-08-17 21:18:00,
2013-08-17 17:21:00,76.1,72.6,30.07,NNW,346,5.8,5.8,89,0.00,SCT,,0.01,134.0,WeatherDisplay:10.37,2013-08-17 21:21:00,
2013-08-17 17:22:00,76.0,72.5,30.08,WNW,303,4.6,4.6,89,0.00,SCT,,0.01,144.0,WeatherDisplay:10.37,2013-08-17 21:22:00,
2013-08-17 17:23:00,76.0,72.5,30.07,NNW,341,5.8,5.8,89,0.00,SCT,,0.01,149.0,WeatherDisplay:10.37,2013-08-17 21:23:00,
2013-08-17 17:26:00,76.1,73.0,30.08,NW,304,3.5,3.5,90,0.00,SCT,,0.01,171.0,WeatherDisplay:10.37,2013-08-17 21:26:00,
2013-08-17 17:28:00,76.2,72.7,30.08,North,355,4.6,4.6,89,0.00,SCT,,0.01,144.0,WeatherDisplay:10.37,2013-08-17 21:28:00,
2013-08-17 17:31:00,76.2,72.7,30.08,West,267,3.5,3.5,89,0.00,SCT,,0.01,144.0,WeatherDisplay:10.37,2013-08-17 21:31:00,
2013-08-17 17:33:00,76.2,72.7,30.08,NW,317,5.8,5.8,89,0.00,SCT,,0.01,135.0,WeatherDisplay:10.37,2013-08-17 21:33:00,
2013-08-17 17:34:00,76.2,72.7,30.08,NW,317,3.5,3.5,89,0.00,SCT,,0.01,135.0,WeatherDisplay:10.37,2013-08-17 21:34:00,
2013-08-17 17:36:00,76.4,73.2,30.08,NNW,328,3.5,3.5,90,0.00,SCT,,0.01,151.0,WeatherDisplay:10.37,2013-08-17 21:36:00,
2013-08-17 17:38:00,76.4,72.9,30.08,NNW,339,3.5,3.5,89,0.00,SCT,,0.01,169.0,WeatherDisplay:10.37,2013-08-17 21:38:00,
2013-08-17 17:39:00,76.3,72.8,30.08,NW,325,4.0,4.0,89,0.00,SCT,,0.01,169.0,WeatherDisplay:10.37,2013-08-17 21:39:00,
2013-08-17 17:42:00,76.4,72.9,30.08,WNW,303,3.5,3.5,89,0.00,SCT,,0.01,125.0,WeatherDisplay:10.37,2013-08-17 21:42:00,
2013-08-17 17:44:00,76.4,72.9,30.08,NNW,340,3.5,3.5,89,0.00,SCT,,0.01,105.0,WeatherDisplay:10.37,2013-08-17 21:44:00,
2013-08-17 17:47:00,76.3,72.8,30.08,NNW,331,3.5,3.5,89,0.00,BKN,,0.01,81.0,WeatherDisplay:10.37,2013-08-17 21:47:00,
2013-08-17 17:49:00,76.2,72.7,30.08,NW,324,8.1,8.1,89,0.00,BKN,,0.01,88.0,WeatherDisplay:10.37,2013-08-17 21:49:00,
2013-08-17 17:50:00,76.2,72.4,30.08,West,274,3.5,3.5,88,0.00,BKN,,0.01,98.0,WeatherDisplay:10.37,2013-08-17 21:50:00,
2013-08-17 17:52:00,76.1,72.6,30.08,WNW,302,4.6,4.6,89,0.00,BKN,,0.01,116.0,WeatherDisplay:10.37,2013-08-17 21:52:00,
2013-08-17 17:54:00,76.2,72.7,30.08,NW,304,2.3,2.3,89,0.00,BKN,,0.01,114.0,WeatherDisplay:10.37,2013-08-17 21:54:00,
2013-08-17 17:55:00,76.2,72.7,30.08,NW,304,2.3,2.3,89,0.00,BKN,,0.01,100.0,WeatherDisplay:10.37,2013-08-17 21:55:00,
2013-08-17 17:57:00,76.2,72.7,30.08,West,263,3.5,3.5,89,0.00,BKN,,0.01,98.0,WeatherDisplay:10.37,2013-08-17 21:57:00,
2013-08-17 17:59:00,76.2,72.7,30.08,NW,317,3.5,3.5,89,0.00,BKN,,0.01,74.0,WeatherDisplay:10.37,2013-08-17 21:59:00,
2013-08-17 18:00:00,76.2,72.7,30.08,NW,316,3.5,3.5,89,0.00,BKN,,0.01,77.0,WeatherDisplay:10.37,2013-08-17 22:00:00,
2013-08-17 18:03:00,76.2,72.7,30.08,NW,323,1.2,0.0,89,0.00,BKN,,0.01,56.0,WeatherDisplay:10.37,2013-08-17 22:03:00,
2013-08-17 18:04:00,76.2,72.7,30.08,NW,322,4.0,4.0,89,0.00,BKN,,0.01,51.0,WeatherDisplay:10.37,2013-08-17 22:04:00,
2013-08-17 18:05:00,76.1,72.6,30.08,NNW,331,3.5,3.5,89,0.00,BKN,,0.01,51.0,WeatherDisplay:10.37,2013-08-17 22:05:00,
2013-08-17 18:08:00,76.0,72.9,30.08,NW,319,3.5,3.5,90,0.00,BKN,,0.01,65.0,WeatherDisplay:10.37,2013-08-17 22:08:00,
2013-08-17 18:09:00,75.9,72.8,30.08,NW,305,3.5,3.5,90,0.00,BKN,,0.01,72.0,WeatherDisplay:10.37,2013-08-17 22:09:00,
2013-08-17 18:10:00,75.9,72.8,30.08,NW,305,3.5,3.5,90,0.00,BKN,,0.01,77.0,WeatherDisplay:10.37,2013-08-17 22:10:00,
2013-08-17 18:13:00,75.9,72.8,30.08,NW,317,3.5,3.5,90,0.00,BKN,,0.01,81.0,WeatherDisplay:10.37,2013-08-17 22:13:00,
2013-08-17 18:14:00,75.9,72.8,30.08,NW,311,2.3,2.3,90,0.00,BKN,,0.01,83.0,WeatherDisplay:10.37,2013-08-17 22:14:00,
2013-08-17 18:15:00,75.8,72.7,30.08,NW,311,2.3,2.3,90,0.00,BKN,,0.01,86.0,WeatherDisplay:10.37,2013-08-17 22:15:00,
2013-08-17 18:16:00,75.8,72.7,30.08,NW,311,3.5,3.5,90,0.00,SCT,,0.01,88.0,WeatherDisplay:10.37,2013-08-17 22:16:00,
2013-08-17 18:18:00,75.8,72.3,30.08,NW,311,3.5,3.5,89,0.00,SCT,,0.01,84.0,WeatherDisplay:10.37,2013-08-17 22:18:00,
2013-08-17 18:20:00,75.8,72.7,30.08,NW,312,2.3,2.3,90,0.00,SCT,,0.01,88.0,WeatherDisplay:10.37,2013-08-17 22:20:00,
2013-08-17 18:21:00,75.8,72.7,30.08,NW,312,3.5,3.5,90,0.00,SCT,,0.01,93.0,WeatherDisplay:10.37,2013-08-17 22:21:00,
2013-08-17 18:23:00,75.8,72.7,30.08,NW,316,3.5,3.5,90,0.00,SCT,,0.01,91.0,WeatherDisplay:10.37,2013-08-17 22:23:00,
2013-08-17 18:25:00,75.9,72.8,30.08,NNE,12,3.5,3.5,90,0.00,SCT,,0.01,97.0,WeatherDisplay:10.37,2013-08-17 22:25:00,
2013-08-17 18:26:00,76.0,72.5,30.08,NW,321,3.5,3.5,89,0.00,SCT,,0.01,91.0,WeatherDisplay:10.37,2013-08-17 22:26:00,
2013-08-17 18:29:00,76.0,72.5,30.08,NW,320,4.6,4.6,89,0.00,SCT,,0.01,79.0,WeatherDisplay:10.37,2013-08-17 22:29:00,
2013-08-17 18:30:00,76.0,72.5,30.08,WNW,285,4.0,4.0,89,0.00,SCT,,0.01,70.0,WeatherDisplay:10.37,2013-08-17 22:30:00,
2013-08-17 18:31:00,75.9,72.4,30.08,NW,313,3.5,3.5,89,0.00,SCT,,0.01,58.0,WeatherDisplay:10.37,2013-08-17 22:31:00,
2013-08-17 18:34:00,75.8,72.3,30.08,NW,312,2.3,2.3,89,0.00,SCT,,0.01,70.0,WeatherDisplay:10.37,2013-08-17 22:34:00,
2013-08-17 18:35:00,75.8,72.7,30.08,WNW,290,3.5,3.5,90,0.00,SCT,,0.01,83.0,WeatherDisplay:10.37,2013-08-17 22:35:00,
2013-08-17 18:36:00,75.8,72.7,30.09,NE,38,3.5,3.5,90,0.00,SCT,,0.01,67.0,WeatherDisplay:10.37,2013-08-17 22:36:00,
2013-08-17 18:39:00,75.7,72.6,30.09,NW,316,3.5,3.5,90,0.00,SCT,,0.01,40.0,WeatherDisplay:10.37,2013-08-17 22:39:00,
2013-08-17 18:40:00,75.7,72.6,30.09,NW,316,1.2,1.2,90,0.00,SCT,,0.01,32.0,WeatherDisplay:10.37,2013-08-17 22:40:00,
2013-08-17 18:41:00,75.7,72.6,30.09,SSW,208,3.5,3.5,90,0.00,SCT,,0.01,26.0,WeatherDisplay:10.37,2013-08-17 22:41:00,
2013-08-17 18:45:00,75.6,72.8,30.09,West,279,4.0,4.0,91,0.00,SCT,,0.01,23.0,WeatherDisplay:10.37,2013-08-17 22:45:00,
2013-08-17 18:47:00,75.5,72.4,30.09,WSW,242,1.2,1.2,90,0.00,SCT,,0.01,26.0,WeatherDisplay:10.37,2013-08-17 22:47:00,
2013-08-17 18:50:00,75.4,72.3,30.10,NW,306,2.0,2.0,90,0.00,SCT,,0.01,30.0,WeatherDisplay:10.37,2013-08-17 22:50:00,
2013-08-17 18:52:00,75.3,72.2,30.10,WSW,250,3.5,3.5,90,0.00,SCT,,0.01,39.0,WeatherDisplay:10.37,2013-08-17 22:52:00,
2013-08-17 18:55:00,75.3,72.5,30.10,WNW,298,2.3,2.3,91,0.00,SCT,,0.01,53.0,WeatherDisplay:10.37,2013-08-17 22:55:00,
2013-08-17 18:56:00,75.3,72.5,30.10,WNW,298,2.3,2.3,91,0.00,SCT,,0.01,53.0,WeatherDisplay:10.37,2013-08-17 22:56:00,
2013-08-17 18:57:00,75.3,72.2,30.10,WNW,298,3.0,3.0,90,0.00,SCT,,0.01,56.0,WeatherDisplay:10.37,2013-08-17 22:57:00,
2013-08-17 18:58:00,75.3,72.2,30.10,WNW,298,3.5,3.5,90,0.00,SCT,,0.01,49.0,WeatherDisplay:10.37,2013-08-17 22:58:00,
2013-08-17 19:00:00,75.3,72.2,30.10,WNW,298,3.5,3.5,90,0.00,FEW,,0.01,42.0,WeatherDisplay:10.37,2013-08-17 23:00:00,
2013-08-17 19:01:00,75.3,72.2,30.10,WNW,301,3.5,3.5,90,0.00,FEW,,0.01,42.0,WeatherDisplay:10.37,2013-08-17 23:01:00,
2013-08-17 19:02:00,75.2,72.1,30.10,WNW,303,3.5,3.5,90,0.00,FEW,,0.01,40.0,WeatherDisplay:10.37,2013-08-17 23:02:00,
2013-08-17 19:03:00,75.2,72.1,30.10,WNW,303,2.3,2.3,90,0.00,FEW,,0.01,40.0,WeatherDisplay:10.37,2013-08-17 23:03:00,
2013-08-17 19:06:00,75.1,72.0,30.10,West,268,2.3,2.3,90,0.00,FEW,,0.01,46.0,WeatherDisplay:10.37,2013-08-17 23:06:00,
2013-08-17 19:07:00,75.1,72.0,30.10,NNW,348,2.3,2.3,90,0.00,FEW,,0.01,44.0,WeatherDisplay:10.37,2013-08-17 23:07:00,
2013-08-17 19:09:00,75.2,72.1,30.10,NNW,348,2.3,2.3,90,0.00,FEW,,0.01,39.0,WeatherDisplay:10.37,2013-08-17 23:09:00,
2013-08-17 19:11:00,75.2,72.1,30.10,NNW,348,1.2,0.0,90,0.00,FEW,,0.01,30.0,WeatherDisplay:10.37,2013-08-17 23:11:00,
2013-08-17 19:12:00,75.1,72.0,30.10,SE,131,0.0,0.0,90,0.00,FEW,,0.01,19.0,WeatherDisplay:10.37,2013-08-17 23:12:00,
2013-08-17 19:13:00,75.1,72.3,30.10,West,264,2.0,2.0,91,0.00,FEW,,0.01,19.0,WeatherDisplay:10.37,2013-08-17 23:13:00,
2013-08-17 19:14:00,75.1,72.3,30.11,West,275,3.5,3.5,91,0.00,FEW,,0.01,12.0,WeatherDisplay:10.37,2013-08-17 23:14:00,
2013-08-17 19:16:00,75.0,72.2,30.11,West,275,0.0,0.0,91,0.00,FEW,,0.01,12.0,WeatherDisplay:10.37,2013-08-17 23:16:00,
2013-08-17 19:17:00,75.0,72.2,30.11,West,279,1.2,1.2,91,0.00,FEW,,0.01,12.0,WeatherDisplay:10.37,2013-08-17 23:17:00,
2013-08-17 19:18:00,74.9,72.1,30.11,West,279,1.2,1.2,91,0.00,FEW,,0.01,14.0,WeatherDisplay:10.37,2013-08-17 23:18:00,
2013-08-17 19:19:00,74.9,72.1,30.11,West,279,1.2,1.2,91,0.00,FEW,,0.01,16.0,WeatherDisplay:10.37,2013-08-17 23:19:00,
2013-08-17 19:21:00,74.8,72.0,30.11,West,279,1.2,1.2,91,0.00,FEW,,0.01,18.0,WeatherDisplay:10.37,2013-08-17 23:21:00,
2013-08-17 19:22:00,74.8,72.0,30.11,West,279,2.3,2.3,91,0.00,FEW,,0.01,19.0,WeatherDisplay:10.37,2013-08-17 23:22:00,
2013-08-17 19:23:00,74.8,72.0,30.11,West,267,3.5,3.5,91,0.00,FEW,,0.01,21.0,WeatherDisplay:10.37,2013-08-17 23:23:00,
2013-08-17 19:24:00,74.7,71.9,30.11,WNW,298,3.0,3.0,91,0.00,FEW,,0.01,19.0,WeatherDisplay:10.37,2013-08-17 23:24:00,
2013-08-17 19:27:00,74.7,72.2,30.11,NW,305,1.2,0.0,92,0.00,FEW,,0.01,12.0,WeatherDisplay:10.37,2013-08-17 23:27:00,
2013-08-17 19:28:00,74.7,72.2,30.11,SE,130,1.2,1.2,92,0.00,FEW,,0.01,11.0,WeatherDisplay:10.37,2013-08-17 23:28:00,
2013-08-17 19:30:00,74.6,71.8,30.11,SE,130,0.0,0.0,91,0.00,FEW,,0.01,7.0,WeatherDisplay:10.37,2013-08-17 23:30:00,
2013-08-17 19:32:00,74.5,71.7,30.11,WNW,288,3.5,3.5,91,0.00,FEW,,0.01,5.0,WeatherDisplay:10.37,2013-08-17 23:32:00,
2013-08-17 19:33:00,74.5,71.7,30.11,WNW,284,4.0,4.0,91,0.00,FEW,,0.01,5.0,WeatherDisplay:10.37,2013-08-17 23:33:00,
2013-08-17 19:35:00,74.4,71.6,30.11,West,259,1.2,0.0,91,0.00,FEW,,0.01,0.0,WeatherDisplay:10.37,2013-08-17 23:35:00,
2013-08-17 19:37:00,74.5,72.0,30.11,West,259,0.0,0.0,92,0.00,FEW,,0.01,0.0,WeatherDisplay:10.37,2013-08-17 23:37:00,
2013-08-17 19:38:00,74.4,71.9,30.11,West,259,1.0,1.0,92,0.00,FEW,,0.01,0.0,WeatherDisplay:10.37,2013-08-17 23:38:00,
2013-08-17 19:41:00,74.4,71.9,30.11,WNW,285,1.2,1.2,92,0.00,FEW,,0.01,0.0,WeatherDisplay:10.37,2013-08-17 23:41:00,
2013-08-17 19:42:00,74.4,71.9,30.11,WNW,285,1.2,1.2,92,0.00,FEW,,0.01,0.0,WeatherDisplay:10.37,2013-08-17 23:42:00,
2013-08-17 19:43:00,74.4,71.9,30.11,WNW,285,1.2,0.0,92,0.00,FEW,,0.01,0.0,WeatherDisplay:10.37,2013-08-17 23:43:00,
2013-08-17 19:44:00,74.4,71.9,30.11,WNW,285,0.0,0.0,92,0.00,FEW,,0.01,0.0,WeatherDisplay:10.37,2013-08-17 23:44:00,
2013-08-17 19:46:00,74.3,71.8,30.11,WNW,286,4.6,4.6,92,0.00,BKN,,0.01,0.0,WeatherDisplay:10.37,2013-08-17 23:46:00,
2013-08-17 19:47:00,74.3,71.8,30.11,WNW,288,2.3,2.3,92,0.00,BKN,,0.01,0.0,WeatherDisplay:10.37,2013-08-17 23:47:00,
2013-08-17 19:48:00,74.2,71.7,30.11,WNW,288,1.2,1.2,92,0.00,BKN,,0.01,0.0,WeatherDisplay:10.37,2013-08-17 23:48:00,
2013-08-17 19:49:00,74.2,71.7,30.11,WNW,288,1.2,1.2,92,0.00,BKN,,0.01,0.0,WeatherDisplay:10.37,2013-08-17 23:49:00,
2013-08-17 19:52:00,74.1,71.6,30.11,WNW,301,4.0,4.0,92,0.00,BKN,,0.01,0.0,WeatherDisplay:10.37,2013-08-17 23:52:00,
2013-08-17 19:53:00,74.1,71.6,30.11,NW,321,2.3,2.3,92,0.00,BKN,,0.01,0.0,WeatherDisplay:10.37,2013-08-17 23:53:00,
2013-08-17 19:54:00,74.0,71.5,30.11,NW,321,2.3,2.3,92,0.00,BKN,,0.01,0.0,WeatherDisplay:10.37,2013-08-17 23:54:00,
2013-08-17 19:55:00,74.0,71.5,30.11,NW,321,2.0,2.0,92,0.00,BKN,,0.01,0.0,WeatherDisplay:10.37,2013-08-17 23:55:00,
2013-08-17 19:57:00,74.0,71.5,30.11,NW,310,1.2,1.2,92,0.00,BKN,,0.01,0.0,WeatherDisplay:10.37,2013-08-17 23:57:00,
2013-08-17 19:59:00,73.9,71.4,30.11,WNW,284,3.5,3.5,92,0.00,BKN,,0.01,0.0,WeatherDisplay:10.37,2013-08-17 23:59:00,
2013-08-17 20:00:00,73.9,71.4,30.11,WNW,284,3.5,3.5,92,0.00,BKN,,0.01,0.0,WeatherDisplay:10.37,2013-08-18 00:00:00,
2013-08-17 20:02:00,73.9,71.4,30.12,WNW,290,3.0,3.0,92,0.00,OVC,,0.01,0.0,WeatherDisplay:10.37,2013-08-18 00:02:00,
2013-08-17 20:04:00,73.8,71.3,30.12,WNW,290,3.5,0.0,92,0.00,OVC,,0.01,0.0,WeatherDisplay:10.37,2013-08-18 00:04:00,
2013-08-17 20:05:00,73.8,71.3,30.12,WNW,290,1.2,0.0,92,0.00,OVC,,0.01,0.0,WeatherDisplay:10.37,2013-08-18 00:05:00,
2013-08-17 20:07:00,73.8,71.3,30.12,NW,321,3.5,3.5,92,0.00,OVC,,0.01,0.0,WeatherDisplay:10.37,2013-08-18 00:07:00,
2013-08-17 20:09:00,73.7,71.2,30.12,WNW,302,2.0,2.0,92,0.00,OVC,,0.01,0.0,WeatherDisplay:10.37,2013-08-18 00:09:00,
2013-08-17 20:10:00,73.7,71.2,30.12,WNW,293,2.3,2.3,92,0.00,OVC,,0.01,0.0,WeatherDisplay:10.37,2013-08-18 00:10:00,
2013-08-17 20:12:00,73.7,71.2,30.12,WNW,290,4.6,4.6,92,0.00,OVC,,0.01,0.0,WeatherDisplay:10.37,2013-08-18 00:12:00,
2013-08-17 20:15:00,73.7,71.2,30.12,WNW,290,1.2,1.2,92,0.00,OVC,,0.01,0.0,WeatherDisplay:10.37,2013-08-18 00:15:00,
2013-08-17 20:16:00,73.6,71.1,30.12,WNW,294,2.3,2.3,92,0.00,OVC,,0.01,0.0,WeatherDisplay:10.37,2013-08-18 00:16:00,
2013-08-17 20:18:00,73.6,71.1,30.12,WNW,294,2.3,2.3,92,0.00,OVC,,0.01,0.0,WeatherDisplay:10.37,2013-08-18 00:18:00,
2013-08-17 20:20:00,73.6,71.1,30.12,WNW,294,3.5,3.5,92,0.00,OVC,,0.01,0.0,WeatherDisplay:10.37,2013-08-18 00:20:00,
2013-08-17 20:21:00,73.6,71.1,30.12,WNW,294,2.3,2.3,92,0.00,OVC,,0.01,0.0,WeatherDisplay:10.37,2013-08-18 00:21:00,
2013-08-17 20:23:00,73.6,71.1,30.12,WNW,294,0.0,0.0,92,0.00,OVC,,0.01,0.0,WeatherDisplay:10.37,2013-08-18 00:23:00,
2013-08-17 20:25:00,73.6,71.1,30.12,WNW,294,2.3,2.3,92,0.00,OVC,,0.01,0.0,WeatherDisplay:10.37,2013-08-18 00:25:00,
2013-08-17 20:26:00,73.6,71.1,30.12,WNW,294,1.2,0.0,92,0.00,OVC,,0.01,0.0,WeatherDisplay:10.37,2013-08-18 00:26:00,
2013-08-17 20:28:00,73.6,71.4,30.12,WNW,294,1.2,1.2,93,0.00,OVC,,0.01,0.0,WeatherDisplay:10.37,2013-08-18 00:28:00,
2013-08-17 20:30:00,73.5,71.4,30.12,WNW,294,0.0,0.0,93,0.00,OVC,,0.01,0.0,WeatherDisplay:10.37,2013-08-18 00:30:00,
2013-08-17 20:31:00,73.5,71.4,30.12,WNW,294,1.2,1.2,93,0.00,OVC,,0.01,0.0,WeatherDisplay:10.37,2013-08-18 00:31:00,
2013-08-17 20:33:00,73.4,71.3,30.12,WNW,294,1.0,1.0,93,0.00,OVC,,0.01,0.0,WeatherDisplay:10.37,2013-08-18 00:33:00,
2013-08-17 20:35:00,73.4,71.3,30.12,WNW,294,1.2,0.0,93,0.00,OVC,,0.01,0.0,WeatherDisplay:10.37,2013-08-18 00:35:00,
2013-08-17 20:36:00,73.3,71.2,30.12,WNW,298,2.3,2.3,93,0.00,OVC,,0.01,0.0,WeatherDisplay:10.37,2013-08-18 00:36:00,
2013-08-17 20:38:00,73.3,71.2,30.12,WNW,298,1.2,0.0,93,0.00,OVC,,0.01,0.0,WeatherDisplay:10.37,2013-08-18 00:38:00,
2013-08-17 20:40:00,73.3,71.2,30.12,WNW,295,0.0,0.0,93,0.00,OVC,,0.01,0.0,WeatherDisplay:10.37,2013-08-18 00:40:00,
2013-08-17 20:41:00,73.3,71.2,30.12,WNW,295,0.0,0.0,93,0.00,OVC,,0.01,0.0,WeatherDisplay:10.37,2013-08-18 00:41:00,
2013-08-17 20:43:00,73.3,71.2,30.12,WNW,295,0.0,0.0,93,0.00,OVC,,0.01,0.0,WeatherDisplay:10.37,2013-08-18 00:43:00,
2013-08-17 20:44:00,73.3,70.8,30.11,WNW,295,0.0,0.0,92,0.00,OVC,,0.01,0.0,WeatherDisplay:10.37,2013-08-18 00:44:00,
2013-08-17 20:45:00,73.3,70.8,30.11,WNW,295,1.2,1.2,92,0.00,OVC,,0.01,0.0,WeatherDisplay:10.37,2013-08-18 00:45:00,
2013-08-17 20:46:00,73.3,70.8,30.11,WNW,295,1.2,1.2,92,0.00,OVC,,0.01,0.0,WeatherDisplay:10.37,2013-08-18 00:46:00,
2013-08-17 20:47:00,73.3,70.8,30.11,WNW,295,1.2,1.2,92,0.00,OVC,,0.01,0.0,WeatherDisplay:10.37,2013-08-18 00:47:00,
2013-08-17 20:48:00,73.3,71.2,30.11,WNW,296,1.2,1.2,93,0.00,OVC,,0.01,0.0,WeatherDisplay:10.37,2013-08-18 00:48:00,
2013-08-17 20:49:00,73.3,70.8,30.11,WNW,296,2.3,2.3,92,0.00,OVC,,0.01,0.0,WeatherDisplay:10.37,2013-08-18 00:49:00,
2013-08-17 20:51:00,73.3,70.8,30.11,WNW,296,1.2,0.0,92,0.00,OVC,,0.01,0.0,WeatherDisplay:10.37,2013-08-18 00:51:00,
2013-08-17 20:52:00,73.4,70.9,30.11,WNW,296,0.0,0.0,92,0.00,OVC,,0.01,0.0,WeatherDisplay:10.37,2013-08-18 00:52:00,
2013-08-17 20:54:00,73.3,71.2,30.12,WNW,296,1.2,1.2,93,0.00,OVC,,0.01,0.0,WeatherDisplay:10.37,2013-08-18 00:54:00,
2013-08-17 20:55:00,73.3,71.2,30.12,WNW,296,1.2,0.0,93,0.00,OVC,,0.01,0.0,WeatherDisplay:10.37,2013-08-18 00:55:00,
2013-08-17 20:56:00,73.2,71.1,30.12,WNW,296,0.0,0.0,93,0.00,OVC,,0.01,0.0,WeatherDisplay:10.37,2013-08-18 00:56:00,
2013-08-17 20:57:00,73.2,71.1,30.12,WNW,296,0.0,0.0,93,0.00,OVC,,0.01,0.0,WeatherDisplay:10.37,2013-08-18 00:57:00,
2013-08-17 20:59:00,73.1,71.0,30.12,WNW,296,0.0,0.0,93,0.00,OVC,,0.01,0.0,WeatherDisplay:10.37,2013-08-18 00:59:00,
2013-08-17 21:00:00,73.1,71.0,30.12,WNW,296,0.0,0.0,93,0.00,OVC,,0.01,0.0,WeatherDisplay:10.37,2013-08-18 01:00:00,
2013-08-17 21:02:00,73.1,71.0,30.12,WNW,296,0.0,0.0,93,0.00,OVC,,0.01,0.0,WeatherDisplay:10.37,2013-08-18 01:02:00,
2013-08-17 21:03:00,73.0,70.9,30.12,WNW,296,0.0,0.0,93,0.00,OVC,,0.01,0.0,WeatherDisplay:10.37,2013-08-18 01:03:00,
2013-08-17 21:04:00,73.0,71.2,30.12,WNW,296,0.0,0.0,94,0.00,OVC,,0.01,0.0,WeatherDisplay:10.37,2013-08-18 01:04:00,
2013-08-17 21:05:00,73.0,71.2,30.12,WNW,296,0.0,0.0,94,0.00,OVC,,0.01,0.0,WeatherDisplay:10.37,2013-08-18 01:05:00,
2013-08-17 21:07:00,72.9,71.1,30.13,WNW,296,0.0,0.0,94,0.00,OVC,,0.01,0.0,WeatherDisplay:10.37,2013-08-18 01:07:00,
2013-08-17 21:08:00,72.9,71.1,30.13,WNW,296,1.2,1.2,94,0.00,OVC,,0.01,0.0,WeatherDisplay:10.37,2013-08-18 01:08:00,
2013-08-17 21:09:00,72.9,71.1,30.13,WNW,296,0.0,0.0,94,0.00,OVC,,0.01,0.0,WeatherDisplay:10.37,2013-08-18 01:09:00,
2013-08-17 21:10:00,72.9,71.1,30.13,WNW,296,0.0,0.0,94,0.00,OVC,,0.01,0.0,WeatherDisplay:10.37,2013-08-18 01:10:00,
2013-08-17 21:12:00,72.9,71.1,30.13,WNW,296,0.0,0.0,94,0.00,OVC,,0.01,0.0,WeatherDisplay:10.37,2013-08-18 01:12:00,
2013-08-17 21:13:00,72.9,71.1,30.13,WNW,296,0.0,0.0,94,0.00,OVC,,0.01,0.0,WeatherDisplay:10.37,2013-08-18 01:13:00,
2013-08-17 21:14:00,72.9,71.1,30.13,WNW,296,1.2,0.0,94,0.00,OVC,,0.01,0.0,WeatherDisplay:10.37,2013-08-18 01:14:00,
2013-08-17 21:16:00,72.8,71.0,30.13,WNW,296,1.0,1.0,94,0.00,OVC,,0.01,0.0,WeatherDisplay:10.37,2013-08-18 01:16:00,
2013-08-17 21:17:00,72.8,71.0,30.13,WNW,296,2.3,2.3,94,0.00,OVC,,0.01,0.0,WeatherDisplay:10.37,2013-08-18 01:17:00,
2013-08-17 21:18:00,72.8,71.0,30.13,WNW,296,1.2,1.2,94,0.00,OVC,,0.01,0.0,WeatherDisplay:10.37,2013-08-18 01:18:00,
2013-08-17 21:19:00,72.8,71.0,30.13,WNW,296,1.2,1.6,94,0.00,OVC,,0.01,0.0,WeatherDisplay:10.37,2013-08-18 01:19:00,
2013-08-17 21:21:00,72.8,71.0,30.13,NW,306,2.3,2.3,94,0.00,OVC,,0.01,0.0,WeatherDisplay:10.37,2013-08-18 01:21:00,
2013-08-17 21:22:00,72.8,71.0,30.13,NW,306,2.3,2.3,94,0.00,OVC,,0.01,0.0,WeatherDisplay:10.37,2013-08-18 01:22:00,
2013-08-17 21:23:00,72.8,71.0,30.13,NW,306,3.5,3.5,94,0.00,OVC,,0.01,0.0,WeatherDisplay:10.37,2013-08-18 01:23:00,
2013-08-17 21:24:00,72.8,70.7,30.13,NW,306,1.2,1.2,93,0.00,OVC,,0.01,0.0,WeatherDisplay:10.37,2013-08-18 01:24:00,
2013-08-17 21:25:00,72.8,70.7,30.13,NW,306,1.2,0.0,93,0.00,OVC,,0.01,0.0,WeatherDisplay:10.37,2013-08-18 01:25:00,
2013-08-17 21:27:00,72.8,70.7,30.13,NW,306,0.0,0.0,93,0.00,OVC,,0.01,0.0,WeatherDisplay:10.37,2013-08-18 01:27:00,
2013-08-17 21:28:00,72.8,70.7,30.13,NW,306,0.0,0.0,93,0.00,OVC,,0.01,0.0,WeatherDisplay:10.37,2013-08-18 01:28:00,
2013-08-17 21:29:00,72.8,71.0,30.13,NW,306,0.0,0.0,94,0.00,OVC,,0.01,0.0,WeatherDisplay:10.37,2013-08-18 01:29:00,
2013-08-17 21:30:00,72.8,71.0,30.13,NW,306,1.0,0.0,94,0.00,OVC,,0.01,0.0,WeatherDisplay:10.37,2013-08-18 01:30:00,
2013-08-17 21:32:00,72.8,71.0,30.13,NW,306,2.3,0.0,94,0.00,OVC,,0.01,0.0,WeatherDisplay:10.37,2013-08-18 01:32:00,
2013-08-17 21:33:00,72.8,70.7,30.13,NW,306,0.0,0.0,93,0.00,OVC,,0.01,0.0,WeatherDisplay:10.37,2013-08-18 01:33:00,
2013-08-17 21:34:00,72.8,70.7,30.13,NW,306,0.0,0.0,93,0.00,OVC,,0.01,0.0,WeatherDisplay:10.37,2013-08-18 01:34:00,
2013-08-17 21:35:00,72.8,71.0,30.13,NW,306,0.0,0.0,94,0.00,OVC,,0.01,0.0,WeatherDisplay:10.37,2013-08-18 01:35:00,
2013-08-17 21:37:00,72.8,71.0,30.14,NW,306,0.0,0.0,94,0.00,OVC,,0.01,0.0,WeatherDisplay:10.37,2013-08-18 01:37:00,
2013-08-17 21:38:00,72.8,70.7,30.14,NW,306,0.0,0.0,93,0.00,OVC,,0.01,0.0,WeatherDisplay:10.37,2013-08-18 01:38:00,
2013-08-17 21:39:00,72.7,70.6,30.14,NW,306,0.0,0.0,93,0.00,OVC,,0.01,0.0,WeatherDisplay:10.37,2013-08-18 01:39:00,
2013-08-17 21:40:00,72.7,70.9,30.14,NW,306,0.0,0.0,94,0.00,OVC,,0.01,0.0,WeatherDisplay:10.37,2013-08-18 01:40:00,
2013-08-17 21:42:00,72.6,70.8,30.14,NW,306,0.0,0.0,94,0.00,OVC,,0.01,0.0,WeatherDisplay:10.37,2013-08-18 01:42:00,
2013-08-17 21:43:00,72.6,70.8,30.14,NW,306,0.0,0.0,94,0.00,OVC,,0.01,0.0,WeatherDisplay:10.37,2013-08-18 01:43:00,
2013-08-17 21:44:00,72.6,70.8,30.14,NW,306,0.0,0.0,94,0.00,OVC,,0.01,0.0,WeatherDisplay:10.37,2013-08-18 01:44:00,
2013-08-17 21:46:00,72.6,70.8,30.14,NW,306,0.0,0.0,94,0.00,OVC,,0.01,0.0,WeatherDisplay:10.37,2013-08-18 01:46:00,
2013-08-17 21:47:00,72.5,70.7,30.14,NW,306,0.0,0.0,94,0.00,OVC,,0.01,0.0,WeatherDisplay:10.37,2013-08-18 01:47:00,
2013-08-17 21:49:00,72.5,70.7,30.15,West,273,1.2,0.0,94,0.00,OVC,,0.01,0.0,WeatherDisplay:10.37,2013-08-18 01:49:00,
2013-08-17 21:51:00,72.5,70.7,30.15,West,273,0.0,0.0,94,0.00,OVC,,0.01,0.0,WeatherDisplay:10.37,2013-08-18 01:51:00,
2013-08-17 21:53:00,72.5,70.7,30.15,West,273,0.0,0.0,94,0.00,OVC,,0.01,0.0,WeatherDisplay:10.37,2013-08-18 01:53:00,
2013-08-17 21:54:00,72.5,70.7,30.15,West,273,0.0,0.0,94,0.00,OVC,,0.01,0.0,WeatherDisplay:10.37,2013-08-18 01:54:00,
2013-08-17 21:55:00,72.5,70.7,30.15,West,273,0.0,0.0,94,0.00,OVC,,0.01,0.0,WeatherDisplay:10.37,2013-08-18 01:55:00,
2013-08-17 21:56:00,72.5,70.7,30.15,West,273,0.0,0.0,94,0.00,OVC,,0.01,0.0,WeatherDisplay:10.37,2013-08-18 01:56:00,
2013-08-17 21:58:00,72.6,70.8,30.15,West,273,0.0,0.0,94,0.00,OVC,,0.01,0.0,WeatherDisplay:10.37,2013-08-18 01:58:00,
2013-08-17 21:59:00,72.6,70.8,30.15,West,273,0.0,0.0,94,0.00,OVC,,0.01,0.0,WeatherDisplay:10.37,2013-08-18 01:59:00,
2013-08-17 22:00:00,72.6,70.8,30.14,West,273,0.0,0.0,94,0.00,OVC,,0.01,0.0,WeatherDisplay:10.37,2013-08-18 02:00:00,
2013-08-17 22:01:00,72.6,70.8,30.14,West,273,0.0,0.0,94,0.00,OVC,,0.01,0.0,WeatherDisplay:10.37,2013-08-18 02:01:00,
2013-08-17 22:03:00,72.6,70.8,30.15,West,273,0.0,0.0,94,0.00,OVC,,0.01,0.0,WeatherDisplay:10.37,2013-08-18 02:03:00,
2013-08-17 22:04:00,72.6,70.8,30.15,West,273,1.2,0.0,94,0.00,OVC,,0.01,0.0,WeatherDisplay:10.37,2013-08-18 02:04:00,
2013-08-17 22:06:00,72.5,70.7,30.15,West,273,0.0,0.0,94,0.00,OVC,,0.01,0.0,WeatherDisplay:10.37,2013-08-18 02:06:00,
2013-08-17 22:09:00,72.4,70.6,30.15,West,273,0.0,0.0,94,0.00,OVC,,0.01,0.0,WeatherDisplay:10.37,2013-08-18 02:09:00,
2013-08-17 22:10:00,72.4,70.6,30.15,West,273,0.0,0.0,94,0.00,OVC,,0.01,0.0,WeatherDisplay:10.37,2013-08-18 02:10:00,
2013-08-17 22:11:00,72.4,70.6,30.15,West,273,0.0,0.0,94,0.00,OVC,,0.01,0.0,WeatherDisplay:10.37,2013-08-18 02:11:00,
2013-08-17 22:14:00,72.3,70.5,30.15,West,273,1.2,0.0,94,0.00,OVC,,0.01,0.0,WeatherDisplay:10.37,2013-08-18 02:14:00,
2013-08-17 22:15:00,72.3,70.8,30.15,West,273,0.0,0.0,95,0.00,OVC,,0.01,0.0,WeatherDisplay:10.37,2013-08-18 02:15:00,
2013-08-17 22:16:00,72.3,70.8,30.15,West,273,0.0,0.0,95,0.00,OVC,,0.01,0.0,WeatherDisplay:10.37,2013-08-18 02:16:00,
2013-08-17 22:19:00,72.3,70.8,30.15,West,273,0.0,0.0,95,0.00,OVC,,0.01,0.0,WeatherDisplay:10.37,2013-08-18 02:19:00,
2013-08-17 22:20:00,72.3,70.8,30.15,West,273,0.0,0.0,95,0.00,OVC,,0.01,0.0,WeatherDisplay:10.37,2013-08-18 02:20:00,
2013-08-17 22:21:00,72.3,70.8,30.16,West,273,0.0,0.0,95,0.00,OVC,,0.01,0.0,WeatherDisplay:10.37,2013-08-18 02:21:00,
2013-08-17 22:22:00,72.3,70.8,30.16,West,275,2.3,2.3,95,0.00,OVC,,0.01,0.0,WeatherDisplay:10.37,2013-08-18 02:22:00,
2013-08-17 22:24:00,72.3,70.8,30.16,West,275,1.2,0.0,95,0.00,OVC,,0.01,0.0,WeatherDisplay:10.37,2013-08-18 02:24:00,
2013-08-17 22:25:00,72.3,70.8,30.15,West,275,1.2,0.0,95,0.00,OVC,,0.01,0.0,WeatherDisplay:10.37,2013-08-18 02:25:00,
2013-08-17 22:26:00,72.3,70.8,30.16,WSW,243,0.0,0.1,95,0.00,OVC,,0.01,0.0,WeatherDisplay:10.37,2013-08-18 02:26:00,
2013-08-17 22:27:00,72.3,70.8,30.15,WSW,243,1.2,0.0,95,0.00,OVC,,0.01,0.0,WeatherDisplay:10.37,2013-08-18 02:27:00,
2013-08-17 22:29:00,72.3,70.5,30.15,WSW,243,1.2,1.2,94,0.00,OVC,,0.01,0.0,WeatherDisplay:10.37,2013-08-18 02:29:00,
2013-08-17 22:30:00,72.3,70.5,30.15,WSW,243,1.2,1.2,94,0.00,OVC,,0.01,0.0,WeatherDisplay:10.37,2013-08-18 02:30:00,
2013-08-17 22:31:00,72.3,70.5,30.15,WNW,294,1.2,1.2,94,0.00,OVC,,0.01,0.0,WeatherDisplay:10.37,2013-08-18 02:31:00,
2013-08-17 22:32:00,72.3,70.5,30.15,WNW,292,2.3,2.3,94,0.00,OVC,,0.01,0.0,WeatherDisplay:10.37,2013-08-18 02:32:00,
2013-08-17 22:34:00,72.3,70.5,30.15,WNW,292,0.0,0.0,94,0.00,OVC,,0.01,0.0,WeatherDisplay:10.37,2013-08-18 02:34:00,
2013-08-17 22:36:00,72.4,70.6,30.15,WNW,292,0.0,0.0,94,0.00,OVC,,0.01,0.0,WeatherDisplay:10.37,2013-08-18 02:36:00,
2013-08-17 22:37:00,72.4,70.6,30.15,WNW,292,0.0,0.0,94,0.00,OVC,,0.01,0.0,WeatherDisplay:10.37,2013-08-18 02:37:00,
2013-08-17 22:38:00,72.4,70.6,30.15,WNW,292,0.0,0.0,94,0.00,OVC,,0.01,0.0,WeatherDisplay:10.37,2013-08-18 02:38:00,
2013-08-17 22:39:00,72.4,70.6,30.15,WNW,302,3.0,3.0,94,0.00,OVC,,0.01,0.0,WeatherDisplay:10.37,2013-08-18 02:39:00,
2013-08-17 22:41:00,72.4,70.6,30.15,WNW,302,3.5,3.5,94,0.00,OVC,,0.01,0.0,WeatherDisplay:10.37,2013-08-18 02:41:00,
2013-08-17 22:42:00,72.4,70.6,30.15,WNW,303,1.2,1.2,94,0.00,OVC,,0.01,0.0,WeatherDisplay:10.37,2013-08-18 02:42:00,
2013-08-17 22:43:00,72.5,70.7,30.15,WNW,302,1.2,1.2,94,0.00,OVC,,0.01,0.0,WeatherDisplay:10.37,2013-08-18 02:43:00,
2013-08-17 22:44:00,72.5,70.7,30.15,WNW,302,2.3,0.0,94,0.00,OVC,,0.01,0.0,WeatherDisplay:10.37,2013-08-18 02:44:00,
2013-08-17 22:46:00,72.4,70.6,30.15,WNW,302,1.2,1.2,94,0.00,OVC,,0.01,0.0,WeatherDisplay:10.37,2013-08-18 02:46:00,
2013-08-17 22:48:00,72.5,70.7,30.15,WNW,302,0.0,0.0,94,0.00,OVC,,0.01,0.0,WeatherDisplay:10.37,2013-08-18 02:48:00,
2013-08-17 22:49:00,72.5,70.7,30.15,WNW,302,0.0,0.0,94,0.00,OVC,,0.01,0.0,WeatherDisplay:10.37,2013-08-18 02:49:00,
2013-08-17 22:51:00,72.5,70.7,30.15,WNW,302,0.0,0.0,94,0.00,OVC,,0.01,0.0,WeatherDisplay:10.37,2013-08-18 02:51:00,
2013-08-17 22:52:00,72.5,70.7,30.15,WNW,302,0.0,0.0,94,0.00,OVC,,0.01,0.0,WeatherDisplay:10.37,2013-08-18 02:52:00,
2013-08-17 22:53:00,72.6,70.8,30.16,WNW,302,0.0,0.0,94,0.00,OVC,,0.01,0.0,WeatherDisplay:10.37,2013-08-18 02:53:00,
2013-08-17 22:55:00,72.6,70.8,30.15,WSW,242,2.0,2.0,94,0.00,OVC,,0.01,0.0,WeatherDisplay:10.37,2013-08-18 02:55:00,
2013-08-17 22:56:00,72.6,70.8,30.16,SW,234,2.3,2.3,94,0.00,OVC,,0.01,0.0,WeatherDisplay:10.37,2013-08-18 02:56:00,
2013-08-17 22:57:00,72.6,70.8,30.16,SW,234,2.3,0.0,94,0.00,OVC,,0.01,0.0,WeatherDisplay:10.37,2013-08-18 02:57:00,
2013-08-17 22:58:00,72.5,70.7,30.16,SW,234,0.0,0.0,94,0.00,OVC,,0.01,0.0,WeatherDisplay:10.37,2013-08-18 02:58:00,
2013-08-17 22:59:00,72.5,70.7,30.16,SW,234,0.0,0.0,94,0.00,OVC,,0.01,0.0,WeatherDisplay:10.37,2013-08-18 02:59:00,
2013-08-17 23:00:00,72.5,70.7,30.16,SW,234,0.0,0.0,94,0.00,OVC,,0.01,0.0,WeatherDisplay:10.37,2013-08-18 03:00:00,
2013-08-17 23:01:00,72.5,70.7,30.15,SW,234,0.0,0.0,94,0.00,OVC,,0.01,0.0,WeatherDisplay:10.37,2013-08-18 03:01:00,
2013-08-17 23:03:00,72.5,70.7,30.16,SW,234,0.0,0.0,94,0.00,OVC,,0.01,0.0,WeatherDisplay:10.37,2013-08-18 03:03:00,
2013-08-17 23:05:00,72.5,70.7,30.15,SW,234,0.0,0.0,94,0.00,OVC,,0.01,0.0,WeatherDisplay:10.37,2013-08-18 03:05:00,
2013-08-17 23:06:00,72.5,70.7,30.15,SW,234,0.0,0.0,94,0.00,OVC,,0.01,0.0,WeatherDisplay:10.37,2013-08-18 03:06:00,
2013-08-17 23:08:00,72.5,70.7,30.15,SW,234,0.0,0.0,94,0.00,OVC,,0.01,0.0,WeatherDisplay:10.37,2013-08-18 03:08:00,
2013-08-17 23:10:00,72.5,70.7,30.15,SW,234,0.0,0.0,94,0.00,OVC,,0.01,0.0,WeatherDisplay:10.37,2013-08-18 03:10:00,
2013-08-17 23:11:00,72.5,70.7,30.15,SW,234,0.0,0.0,94,0.00,OVC,,0.01,0.0,WeatherDisplay:10.37,2013-08-18 03:11:00,
2013-08-17 23:13:00,72.4,70.6,30.15,SW,234,0.0,0.0,94,0.00,OVC,,0.01,0.0,WeatherDisplay:10.37,2013-08-18 03:13:00,
2013-08-17 23:15:00,72.4,70.9,30.15,SW,234,0.0,0.0,95,0.00,OVC,,0.01,0.0,WeatherDisplay:10.37,2013-08-18 03:15:00,
2013-08-17 23:16:00,72.4,70.9,30.15,SW,234,0.0,0.0,95,0.00,OVC,,0.01,0.0,WeatherDisplay:10.37,2013-08-18 03:16:00,
2013-08-17 23:17:00,72.4,70.9,30.15,SW,234,0.0,0.0,95,0.00,OVC,,0.01,0.0,WeatherDisplay:10.37,2013-08-18 03:17:00,
2013-08-17 23:18:00,72.4,70.9,30.15,SW,234,0.0,0.0,95,0.00,OVC,,0.01,0.0,WeatherDisplay:10.37,2013-08-18 03:18:00,
2013-08-17 23:21:00,72.3,70.8,30.15,SW,234,0.0,0.0,95,0.00,OVC,,0.01,0.0,WeatherDisplay:10.37,2013-08-18 03:21:00,
2013-08-17 23:22:00,72.3,70.8,30.15,SW,234,0.0,0.0,95,0.00,OVC,,0.01,0.0,WeatherDisplay:10.37,2013-08-18 03:22:00,
2013-08-17 23:23:00,72.3,70.8,30.15,SW,234,0.0,0.0,95,0.00,OVC,,0.01,0.0,WeatherDisplay:10.37,2013-08-18 03:23:00,
2013-08-17 23:26:00,72.3,70.8,30.15,SW,234,0.0,0.0,95,0.00,OVC,,0.01,0.0,WeatherDisplay:10.37,2013-08-18 03:26:00,
2013-08-17 23:27:00,72.3,70.8,30.15,SW,234,0.0,0.0,95,0.00,OVC,,0.01,0.0,WeatherDisplay:10.37,2013-08-18 03:27:00,
2013-08-17 23:28:00,72.3,70.8,30.15,SW,234,0.0,0.0,95,0.00,OVC,,0.01,0.0,WeatherDisplay:10.37,2013-08-18 03:28:00,
2013-08-17 23:29:00,72.3,70.8,30.15,SW,234,0.0,0.0,95,0.00,OVC,,0.01,0.0,WeatherDisplay:10.37,2013-08-18 03:29:00,
2013-08-17 23:31:00,72.3,70.8,30.15,West,262,1.2,1.2,95,0.00,OVC,,0.01,0.0,WeatherDisplay:10.37,2013-08-18 03:31:00,
2013-08-17 23:32:00,72.3,70.8,30.15,West,262,1.2,1.2,95,0.00,OVC,,0.01,0.0,WeatherDisplay:10.37,2013-08-18 03:32:00,
2013-08-17 23:33:00,72.3,70.8,30.15,NW,309,3.5,3.5,95,0.00,OVC,,0.01,0.0,WeatherDisplay:10.37,2013-08-18 03:33:00,
2013-08-17 23:34:00,72.3,70.8,30.15,NW,306,1.2,0.0,95,0.00,OVC,,0.01,0.0,WeatherDisplay:10.37,2013-08-18 03:34:00,
2013-08-17 23:37:00,72.3,70.8,30.15,NW,305,1.2,1.2,95,0.00,OVC,,0.01,0.0,WeatherDisplay:10.37,2013-08-18 03:37:00,
2013-08-17 23:38:00,72.3,70.8,30.15,NW,305,0.0,0.0,95,0.00,OVC,,0.01,0.0,WeatherDisplay:10.37,2013-08-18 03:38:00,
2013-08-17 23:39:00,72.4,70.9,30.15,NW,305,1.2,1.2,95,0.00,OVC,,0.01,0.0,WeatherDisplay:10.37,2013-08-18 03:39:00,
2013-08-17 23:42:00,72.3,70.8,30.15,WNW,292,0.0,0.0,95,0.00,OVC,,0.01,0.0,WeatherDisplay:10.37,2013-08-18 03:42:00,
2013-08-17 23:43:00,72.4,70.9,30.15,WNW,292,0.0,0.0,95,0.00,OVC,,0.01,0.0,WeatherDisplay:10.37,2013-08-18 03:43:00,
2013-08-17 23:44:00,72.3,70.8,30.15,West,267,1.2,1.2,95,0.00,OVC,,0.01,0.0,WeatherDisplay:10.37,2013-08-18 03:44:00,
2013-08-17 23:47:00,72.3,70.8,30.15,West,267,0.0,0.0,95,0.00,OVC,,0.01,0.0,WeatherDisplay:10.37,2013-08-18 03:47:00,
2013-08-17 23:48:00,72.4,70.9,30.15,West,267,0.0,0.0,95,0.00,OVC,,0.01,0.0,WeatherDisplay:10.37,2013-08-18 03:48:00,
2013-08-17 23:49:00,72.3,70.8,30.15,West,267,0.0,0.0,95,0.00,OVC,,0.01,0.0,WeatherDisplay:10.37,2013-08-18 03:49:00,
2013-08-17 23:52:00,72.4,70.9,30.15,West,267,1.2,1.2,95,0.00,OVC,,0.01,0.0,WeatherDisplay:10.37,2013-08-18 03:52:00,
2013-08-17 23:53:00,72.4,70.9,30.15,West,267,0.0,0.0,95,0.00,OVC,,0.01,0.0,WeatherDisplay:10.37,2013-08-18 03:53:00,
2013-08-17 23:54:00,72.4,70.9,30.15,West,267,0.0,0.0,95,0.00,OVC,,0.01,0.0,WeatherDisplay:10.37,2013-08-18 03:54:00,
2013-08-17 23:55:00,72.4,70.9,30.15,West,267,1.2,1.2,95,0.00,OVC,,0.01,0.0,WeatherDisplay:10.37,2013-08-18 03:55:00,
2013-08-17 23:57:00,72.4,70.9,30.15,SW,234,1.2,1.2,95,0.00,OVC,,0.01,0.0,WeatherDisplay:10.37,2013-08-18 03:57:00,
2013-08-17 23:58:00,72.4,70.9,30.15,SW,234,1.2,0.0,95,0.00,OVC,,0.01,0.0,WeatherDisplay:10.37,2013-08-18 03:58:00,
2013-08-17 23:59:00,72.4,70.9,30.15,SW,236,1.2,1.2,95,0.00,OVC,,0.01,0.0,WeatherDisplay:10.37,2013-08-18 03:59:00,